Time,TemperatureF,DewpointF,PressureIn,WindDirection,WindDirectionDegrees,WindSpeedMPH,WindSpeedGustMPH,Humidity,HourlyPrecipIn,Conditions,Clouds,dailyrainin,SoftwareType,DateUTC
2013-05-04 00:01:00,66.8,46.5,29.98,ESE,113,4.7,9.2,48,0.00,RA,,0.00,WeatherDisplay:10.37,2013-05-04 04:01:00,
2013-05-04 00:06:00,66.7,46.4,29.97,East,80,4.4,8.1,48,0.00,RA,,0.00,WeatherDisplay:10.37,2013-05-04 04:06:00,
2013-05-04 00:07:00,66.7,46.9,29.97,East,98,4.5,6.9,49,0.00,RA,,0.00,WeatherDisplay:10.37,2013-05-04 04:07:00,
2013-05-04 00:11:00,66.5,46.2,29.97,East,88,4.9,11.5,48,0.00,CLR,,0.00,WeatherDisplay:10.37,2013-05-04 04:11:00,
2013-05-04 00:12:00,66.5,45.6,29.97,East,101,5.1,5.8,47,0.00,CLR,,0.00,WeatherDisplay:10.37,2013-05-04 04:12:00,
2013-05-04 00:16:00,66.3,46.0,29.97,East,96,3.0,6.9,48,0.00,CLR,,0.00,WeatherDisplay:10.37,2013-05-04 04:16:00,
2013-05-04 00:17:00,66.3,46.0,29.97,ENE,76,5.7,9.2,48,0.00,CLR,,0.00,WeatherDisplay:10.37,2013-05-04 04:17:00,
2013-05-04 00:21:00,66.2,45.9,29.97,ESE,115,4.6,7.0,48,0.00,CLR,,0.00,WeatherDisplay:10.37,2013-05-04 04:21:00,
2013-05-04 00:22:00,66.2,45.4,29.97,ENE,77,5.4,8.1,47,0.00,CLR,,0.00,WeatherDisplay:10.37,2013-05-04 04:22:00,
2013-05-04 00:26:00,66.1,45.3,29.98,East,98,4.6,9.2,47,0.00,CLR,,0.00,WeatherDisplay:10.37,2013-05-04 04:26:00,
2013-05-04 00:27:00,66.0,45.2,29.98,East,98,4.7,6.9,47,0.00,CLR,,0.00,WeatherDisplay:10.37,2013-05-04 04:27:00,
2013-05-04 00:28:00,66.0,45.2,29.98,East,84,3.9,6.9,47,0.00,CLR,,0.00,WeatherDisplay:10.37,2013-05-04 04:28:00,
2013-05-04 00:31:00,65.9,45.6,29.98,East,98,1.9,3.5,48,0.00,CLR,,0.00,WeatherDisplay:10.37,2013-05-04 04:31:00,
2013-05-04 00:32:00,65.9,45.6,29.98,ENE,67,2.7,5.0,48,0.00,CLR,,0.00,WeatherDisplay:10.37,2013-05-04 04:32:00,
2013-05-04 00:33:00,65.9,45.1,29.98,East,97,2.7,6.9,47,0.00,CLR,,0.00,WeatherDisplay:10.37,2013-05-04 04:33:00,
2013-05-04 00:36:00,65.7,45.5,29.98,ENE,76,3.0,8.1,48,0.00,CLR,,0.00,WeatherDisplay:10.37,2013-05-04 04:36:00,
2013-05-04 00:37:00,65.7,45.5,29.98,East,90,3.4,5.8,48,0.00,CLR,,0.00,WeatherDisplay:10.37,2013-05-04 04:37:00,
2013-05-04 00:38:00,65.6,45.4,29.98,NE,49,2.1,4.6,48,0.00,CLR,,0.00,WeatherDisplay:10.37,2013-05-04 04:38:00,
2013-05-04 00:41:00,65.4,44.6,29.98,ESE,110,2.6,3.5,47,0.00,CLR,,0.00,WeatherDisplay:10.37,2013-05-04 04:41:00,
2013-05-04 00:42:00,65.4,44.6,29.98,ESE,119,2.4,4.6,47,0.00,CLR,,0.00,WeatherDisplay:10.37,2013-05-04 04:42:00,
2013-05-04 00:44:00,65.3,45.1,29.98,ESE,110,2.2,6.9,48,0.00,CLR,,0.00,WeatherDisplay:10.37,2013-05-04 04:44:00,
2013-05-04 00:47:00,65.2,45.0,29.98,East,92,3.0,3.0,48,0.00,CLR,,0.00,WeatherDisplay:10.37,2013-05-04 04:47:00,
2013-05-04 00:48:00,65.2,45.5,29.98,East,94,1.4,3.5,49,0.00,CLR,,0.00,WeatherDisplay:10.37,2013-05-04 04:48:00,
2013-05-04 00:49:00,65.1,44.9,29.98,ESE,119,2.4,3.5,48,0.00,CLR,,0.00,WeatherDisplay:10.37,2013-05-04 04:49:00,
2013-05-04 00:52:00,65.0,44.8,29.98,ESE,121,2.3,4.6,48,0.00,CLR,,0.00,WeatherDisplay:10.37,2013-05-04 04:52:00,
2013-05-04 00:53:00,65.0,44.8,29.98,ESE,111,1.8,3.5,48,0.00,CLR,,0.00,WeatherDisplay:10.37,2013-05-04 04:53:00,
2013-05-04 00:55:00,65.0,45.4,29.98,SE,145,2.1,4.6,49,0.00,CLR,,0.00,WeatherDisplay:10.37,2013-05-04 04:55:00,
2013-05-04 00:57:00,64.9,44.7,29.98,East,82,1.5,2.3,48,0.00,CLR,,0.00,WeatherDisplay:10.37,2013-05-04 04:57:00,
2013-05-04 00:58:00,64.9,44.7,29.98,East,95,1.5,3.5,48,0.00,CLR,,0.00,WeatherDisplay:10.37,2013-05-04 04:58:00,
2013-05-04 01:00:00,64.8,44.6,29.98,SE,136,3.1,4.6,48,0.00,CLR,,0.00,WeatherDisplay:10.37,2013-05-04 05:00:00,
2013-05-04 01:02:00,64.8,44.6,29.98,ENE,59,2.1,4.6,48,0.00,CLR,,0.00,WeatherDisplay:10.37,2013-05-04 05:02:00,
2013-05-04 01:03:00,64.8,45.2,29.98,East,96,1.0,5.0,49,0.00,CLR,,0.00,WeatherDisplay:10.37,2013-05-04 05:03:00,
2013-05-04 01:04:00,64.7,45.1,29.98,SE,130,2.4,5.0,49,0.00,CLR,,0.00,WeatherDisplay:10.37,2013-05-04 05:04:00,
2013-05-04 01:05:00,64.7,44.5,29.98,SE,138,2.0,4.6,48,0.00,CLR,,0.00,WeatherDisplay:10.37,2013-05-04 05:05:00,
2013-05-04 01:07:00,64.7,44.5,29.98,ESE,118,1.7,3.5,48,0.00,CLR,,0.00,WeatherDisplay:10.37,2013-05-04 05:07:00,
2013-05-04 01:08:00,64.7,44.5,29.98,ESE,112,1.3,3.5,48,0.00,CLR,,0.00,WeatherDisplay:10.37,2013-05-04 05:08:00,
2013-05-04 01:09:00,64.6,44.5,29.98,SSE,168,1.2,3.5,48,0.00,CLR,,0.00,WeatherDisplay:10.37,2013-05-04 05:09:00,
2013-05-04 01:10:00,64.6,44.5,29.98,ENE,78,1.3,3.5,48,0.00,CLR,,0.00,WeatherDisplay:10.37,2013-05-04 05:10:00,
2013-05-04 01:12:00,64.5,44.9,29.98,East,94,1.0,2.0,49,0.00,CLR,,0.00,WeatherDisplay:10.37,2013-05-04 05:12:00,
2013-05-04 01:13:00,64.5,44.9,29.98,ESE,104,1.0,3.5,49,0.00,CLR,,0.00,WeatherDisplay:10.37,2013-05-04 05:13:00,
2013-05-04 01:15:00,64.5,44.4,29.98,East,90,3.0,8.0,48,0.00,CLR,,0.00,WeatherDisplay:10.37,2013-05-04 05:15:00,
2013-05-04 01:16:00,64.5,44.4,29.98,SE,129,2.3,4.0,48,0.00,CLR,,0.00,WeatherDisplay:10.37,2013-05-04 05:16:00,
2013-05-04 01:17:00,64.4,44.3,29.98,ENE,73,2.5,3.5,48,0.00,CLR,,0.00,WeatherDisplay:10.37,2013-05-04 05:17:00,
2013-05-04 01:18:00,64.4,44.3,29.98,ESE,119,2.4,5.8,48,0.00,CLR,,0.00,WeatherDisplay:10.37,2013-05-04 05:18:00,
2013-05-04 01:20:00,64.4,44.8,29.98,ESE,104,0.8,2.3,49,0.00,CLR,,0.00,WeatherDisplay:10.37,2013-05-04 05:20:00,
2013-05-04 01:21:00,64.3,44.7,29.98,East,82,3.1,7.0,49,0.00,CLR,,0.00,WeatherDisplay:10.37,2013-05-04 05:21:00,
2013-05-04 01:23:00,64.3,44.2,29.98,East,83,2.5,5.0,48,0.00,CLR,,0.00,WeatherDisplay:10.37,2013-05-04 05:23:00,
2013-05-04 01:25:00,64.2,44.6,29.98,ESE,113,3.2,5.8,49,0.00,CLR,,0.00,WeatherDisplay:10.37,2013-05-04 05:25:00,
2013-05-04 01:26:00,64.2,44.1,29.98,East,98,3.0,3.5,48,0.00,CLR,,0.00,WeatherDisplay:10.37,2013-05-04 05:26:00,
2013-05-04 01:28:00,64.2,44.1,29.98,East,86,3.1,6.9,48,0.00,CLR,,0.00,WeatherDisplay:10.37,2013-05-04 05:28:00,
2013-05-04 01:30:00,64.1,44.5,29.98,ENE,76,2.3,5.8,49,0.00,CLR,,0.00,WeatherDisplay:10.37,2013-05-04 05:30:00,
2013-05-04 01:31:00,64.1,44.5,29.98,East,99,2.3,4.6,49,0.00,CLR,,0.00,WeatherDisplay:10.37,2013-05-04 05:31:00,
2013-05-04 01:33:00,64.1,44.5,29.98,ENE,72,2.8,4.6,49,0.00,CLR,,0.00,WeatherDisplay:10.37,2013-05-04 05:33:00,
2013-05-04 01:36:00,64.1,44.5,29.98,East,92,5.6,7.0,49,0.00,CLR,,0.00,WeatherDisplay:10.37,2013-05-04 05:36:00,
2013-05-04 01:39:00,64.1,44.0,29.98,ESE,105,4.1,8.1,48,0.00,CLR,,0.00,WeatherDisplay:10.37,2013-05-04 05:39:00,
2013-05-04 01:41:00,64.1,44.5,29.98,ESE,123,3.4,8.1,49,0.00,CLR,,0.00,WeatherDisplay:10.37,2013-05-04 05:41:00,
2013-05-04 01:44:00,64.1,44.5,29.98,ENE,74,3.3,6.0,49,0.00,CLR,,0.00,WeatherDisplay:10.37,2013-05-04 05:44:00,
2013-05-04 01:45:00,64.1,44.5,29.98,ESE,105,3.3,5.8,49,0.00,CLR,,0.00,WeatherDisplay:10.37,2013-05-04 05:45:00,
2013-05-04 01:46:00,64.1,44.5,29.98,SE,139,3.9,6.0,49,0.00,CLR,,0.00,WeatherDisplay:10.37,2013-05-04 05:46:00,
2013-05-04 01:49:00,64.1,44.0,29.98,SSE,149,3.2,8.1,48,0.00,CLR,,0.00,WeatherDisplay:10.37,2013-05-04 05:49:00,
2013-05-04 01:50:00,64.1,43.4,29.98,SE,144,7.2,11.5,47,0.00,CLR,,0.00,WeatherDisplay:10.37,2013-05-04 05:50:00,
2013-05-04 01:51:00,64.2,44.1,29.98,ESE,122,4.6,9.2,48,0.00,CLR,,0.00,WeatherDisplay:10.37,2013-05-04 05:51:00,
2013-05-04 01:54:00,64.2,44.1,29.98,East,88,2.5,4.0,48,0.00,CLR,,0.00,WeatherDisplay:10.37,2013-05-04 05:54:00,
2013-05-04 01:55:00,64.2,43.5,29.98,ESE,117,3.7,6.9,47,0.00,CLR,,0.00,WeatherDisplay:10.37,2013-05-04 05:55:00,
2013-05-04 01:56:00,64.2,44.1,29.98,SE,144,2.4,4.6,48,0.00,CLR,,0.00,WeatherDisplay:10.37,2013-05-04 05:56:00,
2013-05-04 01:59:00,64.2,43.5,29.98,SSE,149,5.4,8.0,47,0.00,CLR,,0.00,WeatherDisplay:10.37,2013-05-04 05:59:00,
2013-05-04 02:00:00,64.2,43.0,29.98,East,84,5.4,12.7,46,0.00,CLR,,0.00,WeatherDisplay:10.37,2013-05-04 06:00:00,
2013-05-04 02:01:00,64.3,43.1,29.98,SE,136,3.7,10.4,46,0.00,CLR,,0.00,WeatherDisplay:10.37,2013-05-04 06:01:00,
2013-05-04 02:04:00,64.4,43.7,29.98,East,100,5.9,6.9,47,0.00,CLR,,0.00,WeatherDisplay:10.37,2013-05-04 06:04:00,
2013-05-04 02:05:00,64.4,43.2,29.98,SE,135,3.8,11.5,46,0.00,CLR,,0.00,WeatherDisplay:10.37,2013-05-04 06:05:00,
2013-05-04 02:07:00,64.4,43.7,29.98,East,83,4.8,9.2,47,0.00,CLR,,0.00,WeatherDisplay:10.37,2013-05-04 06:07:00,
2013-05-04 02:09:00,64.4,43.2,29.98,SE,125,2.3,3.5,46,0.00,CLR,,0.00,WeatherDisplay:10.37,2013-05-04 06:09:00,
2013-05-04 02:10:00,64.3,43.1,29.97,ESE,105,2.1,5.0,46,0.00,CLR,,0.00,WeatherDisplay:10.37,2013-05-04 06:10:00,
2013-05-04 02:12:00,64.3,43.1,29.97,SE,145,2.9,5.8,46,0.00,CLR,,0.00,WeatherDisplay:10.37,2013-05-04 06:12:00,
2013-05-04 02:14:00,64.2,43.0,29.98,ESE,105,2.3,4.0,46,0.00,CLR,,0.00,WeatherDisplay:10.37,2013-05-04 06:14:00,
2013-05-04 02:16:00,64.2,43.0,29.97,East,90,1.7,6.0,46,0.00,CLR,,0.00,WeatherDisplay:10.37,2013-05-04 06:16:00,
2013-05-04 02:17:00,64.1,43.4,29.98,ENE,71,1.8,4.6,47,0.00,CLR,,0.00,WeatherDisplay:10.37,2013-05-04 06:17:00,
2013-05-04 02:20:00,64.1,42.9,29.97,East,85,2.4,8.1,46,0.00,CLR,,0.00,WeatherDisplay:10.37,2013-05-04 06:20:00,
2013-05-04 02:21:00,64.0,42.8,29.98,East,90,0.7,2.3,46,0.00,CLR,,0.00,WeatherDisplay:10.37,2013-05-04 06:21:00,
2013-05-04 02:22:00,64.0,43.4,29.97,ENE,67,3.2,6.9,47,0.00,CLR,,0.00,WeatherDisplay:10.37,2013-05-04 06:22:00,
2013-05-04 02:25:00,63.8,43.2,29.98,East,82,2.4,5.8,47,0.00,CLR,,0.00,WeatherDisplay:10.37,2013-05-04 06:25:00,
2013-05-04 02:26:00,63.8,43.2,29.98,SE,132,4.4,9.2,47,0.00,CLR,,0.00,WeatherDisplay:10.37,2013-05-04 06:26:00,
2013-05-04 02:27:00,63.8,43.2,29.98,East,80,3.4,8.1,47,0.00,CLR,,0.00,WeatherDisplay:10.37,2013-05-04 06:27:00,
2013-05-04 02:30:00,63.6,43.0,29.97,NE,55,4.1,6.9,47,0.00,CLR,,0.00,WeatherDisplay:10.37,2013-05-04 06:30:00,
2013-05-04 02:31:00,63.6,43.0,29.98,East,91,4.1,6.9,47,0.00,CLR,,0.00,WeatherDisplay:10.37,2013-05-04 06:31:00,
2013-05-04 02:32:00,63.6,43.0,29.98,East,82,4.4,6.9,47,0.00,CLR,,0.00,WeatherDisplay:10.37,2013-05-04 06:32:00,
2013-05-04 02:33:00,63.5,42.3,29.98,ENE,75,5.7,9.2,46,0.00,CLR,,0.00,WeatherDisplay:10.37,2013-05-04 06:33:00,
2013-05-04 02:35:00,63.5,43.4,29.98,ENE,70,3.3,4.6,48,0.00,CLR,,0.00,WeatherDisplay:10.37,2013-05-04 06:35:00,
2013-05-04 02:36:00,63.5,42.9,29.98,ESE,123,4.3,6.9,47,0.00,CLR,,0.00,WeatherDisplay:10.37,2013-05-04 06:36:00,
2013-05-04 02:37:00,63.5,42.9,29.98,East,86,4.8,8.1,47,0.00,CLR,,0.00,WeatherDisplay:10.37,2013-05-04 06:37:00,
2013-05-04 02:38:00,63.5,43.4,29.97,East,92,6.0,8.1,48,0.00,CLR,,0.00,WeatherDisplay:10.37,2013-05-04 06:38:00,
2013-05-04 02:41:00,63.4,42.8,29.97,ESE,103,5.7,9.2,47,0.00,CLR,,0.00,WeatherDisplay:10.37,2013-05-04 06:41:00,
2013-05-04 02:42:00,63.4,43.4,29.97,ESE,106,3.7,10.0,48,0.00,CLR,,0.00,WeatherDisplay:10.37,2013-05-04 06:42:00,
2013-05-04 02:43:00,63.4,43.4,29.97,East,90,6.0,10.4,48,0.00,CLR,,0.00,WeatherDisplay:10.37,2013-05-04 06:43:00,
2013-05-04 02:46:00,63.3,42.7,29.97,ESE,119,6.8,10.4,47,0.00,CLR,,0.00,WeatherDisplay:10.37,2013-05-04 06:46:00,
2013-05-04 02:47:00,63.3,43.3,29.97,East,95,5.8,8.1,48,0.00,CLR,,0.00,WeatherDisplay:10.37,2013-05-04 06:47:00,
2013-05-04 02:48:00,63.3,42.7,29.97,ENE,61,3.5,8.1,47,0.00,CLR,,0.00,WeatherDisplay:10.37,2013-05-04 06:48:00,
2013-05-04 02:49:00,63.2,43.2,29.97,ESE,103,7.3,10.4,48,0.00,CLR,,0.00,WeatherDisplay:10.37,2013-05-04 06:49:00,
2013-05-04 02:51:00,63.2,43.2,29.97,East,84,4.7,6.9,48,0.00,CLR,,0.00,WeatherDisplay:10.37,2013-05-04 06:51:00,
2013-05-04 02:52:00,63.2,43.2,29.97,East,97,4.8,8.1,48,0.00,CLR,,0.00,WeatherDisplay:10.37,2013-05-04 06:52:00,
2013-05-04 02:53:00,63.2,42.6,29.97,ENE,65,6.7,10.4,47,0.00,CLR,,0.00,WeatherDisplay:10.37,2013-05-04 06:53:00,
2013-05-04 02:54:00,63.2,42.6,29.97,East,83,4.5,8.1,47,0.00,CLR,,0.00,WeatherDisplay:10.37,2013-05-04 06:54:00,
2013-05-04 02:56:00,63.1,43.6,29.97,East,89,3.6,5.8,49,0.00,CLR,,0.00,WeatherDisplay:10.37,2013-05-04 06:56:00,
2013-05-04 02:57:00,63.1,43.1,29.97,East,84,3.6,6.0,48,0.00,CLR,,0.00,WeatherDisplay:10.37,2013-05-04 06:57:00,
2013-05-04 02:58:00,63.1,43.1,29.97,East,89,3.2,6.9,48,0.00,CLR,,0.00,WeatherDisplay:10.37,2013-05-04 06:58:00,
2013-05-04 02:59:00,63.0,43.0,29.97,East,83,3.0,5.8,48,0.00,CLR,,0.00,WeatherDisplay:10.37,2013-05-04 06:59:00,
2013-05-04 03:01:00,62.9,42.9,29.97,ENE,71,3.5,5.8,48,0.00,CLR,,0.00,WeatherDisplay:10.37,2013-05-04 07:01:00,
2013-05-04 03:02:00,62.9,42.9,29.97,East,90,3.0,6.9,48,0.00,CLR,,0.00,WeatherDisplay:10.37,2013-05-04 07:02:00,
2013-05-04 03:03:00,62.9,42.9,29.97,ENE,75,4.5,6.9,48,0.00,CLR,,0.00,WeatherDisplay:10.37,2013-05-04 07:03:00,
2013-05-04 03:04:00,62.9,43.4,29.97,ENE,67,3.6,9.0,49,0.00,CLR,,0.00,WeatherDisplay:10.37,2013-05-04 07:04:00,
2013-05-04 03:07:00,62.9,42.9,29.97,East,90,4.5,6.9,48,0.00,CLR,,0.00,WeatherDisplay:10.37,2013-05-04 07:07:00,
2013-05-04 03:08:00,62.9,42.9,29.97,East,96,4.7,9.2,48,0.00,CLR,,0.00,WeatherDisplay:10.37,2013-05-04 07:08:00,
2013-05-04 03:09:00,62.9,43.4,29.97,ESE,106,1.9,8.1,49,0.00,CLR,,0.00,WeatherDisplay:10.37,2013-05-04 07:09:00,
2013-05-04 03:12:00,62.8,42.8,29.97,ENE,69,4.4,8.1,48,0.00,CLR,,0.00,WeatherDisplay:10.37,2013-05-04 07:12:00,
2013-05-04 03:13:00,62.7,42.7,29.97,ENE,66,4.3,8.0,48,0.00,CLR,,0.00,WeatherDisplay:10.37,2013-05-04 07:13:00,
2013-05-04 03:14:00,62.7,43.3,29.97,East,88,5.9,10.4,49,0.00,CLR,,0.00,WeatherDisplay:10.37,2013-05-04 07:14:00,
2013-05-04 03:18:00,62.6,42.6,29.97,ESE,103,6.6,9.2,48,0.00,CLR,,0.00,WeatherDisplay:10.37,2013-05-04 07:18:00,
2013-05-04 03:19:00,62.6,43.2,29.97,East,88,4.8,9.2,49,0.00,CLR,,0.00,WeatherDisplay:10.37,2013-05-04 07:19:00,
2013-05-04 03:23:00,62.4,43.0,29.97,East,98,4.5,8.1,49,0.00,CLR,,0.00,WeatherDisplay:10.37,2013-05-04 07:23:00,
2013-05-04 03:24:00,62.3,42.9,29.97,East,83,5.4,5.8,49,0.00,CLR,,0.00,WeatherDisplay:10.37,2013-05-04 07:24:00,
2013-05-04 03:25:00,62.3,42.9,29.97,East,98,4.2,10.4,49,0.00,CLR,,0.00,WeatherDisplay:10.37,2013-05-04 07:25:00,
2013-05-04 03:28:00,62.2,43.3,29.97,East,81,6.2,6.9,50,0.00,CLR,,0.00,WeatherDisplay:10.37,2013-05-04 07:28:00,
2013-05-04 03:29:00,62.2,43.3,29.97,ENE,71,3.9,8.1,50,0.00,CLR,,0.00,WeatherDisplay:10.37,2013-05-04 07:29:00,
2013-05-04 03:30:00,62.2,42.8,29.97,NNE,33,5.3,8.1,49,0.00,CLR,,0.00,WeatherDisplay:10.37,2013-05-04 07:30:00,
2013-05-04 03:33:00,62.2,43.3,29.97,ENE,67,3.7,9.2,50,0.00,CLR,,0.00,WeatherDisplay:10.37,2013-05-04 07:33:00,
2013-05-04 03:35:00,62.1,42.7,29.97,ENE,61,5.4,10.4,49,0.00,CLR,,0.00,WeatherDisplay:10.37,2013-05-04 07:35:00,
2013-05-04 03:38:00,62.1,43.7,29.97,East,96,3.6,6.9,51,0.00,CLR,,0.00,WeatherDisplay:10.37,2013-05-04 07:38:00,
2013-05-04 03:39:00,62.1,43.2,29.97,ENE,69,3.8,5.8,50,0.00,CLR,,0.00,WeatherDisplay:10.37,2013-05-04 07:39:00,
2013-05-04 03:40:00,62.0,43.7,29.97,East,80,2.3,3.5,51,0.00,CLR,,0.00,WeatherDisplay:10.37,2013-05-04 07:40:00,
2013-05-04 03:41:00,62.0,43.1,29.97,East,82,4.2,4.6,50,0.00,CLR,,0.00,WeatherDisplay:10.37,2013-05-04 07:41:00,
2013-05-04 03:43:00,61.9,43.0,29.97,East,90,6.0,8.1,50,0.00,CLR,,0.00,WeatherDisplay:10.37,2013-05-04 07:43:00,
2013-05-04 03:44:00,61.9,43.0,29.97,East,90,6.0,8.1,50,0.00,CLR,,0.00,WeatherDisplay:10.37,2013-05-04 07:44:00,
2013-05-04 03:46:00,61.9,44.1,29.97,East,85,4.8,8.1,52,0.00,CLR,,0.00,WeatherDisplay:10.37,2013-05-04 07:46:00,
2013-05-04 03:49:00,61.9,44.1,29.97,East,86,4.3,8.1,52,0.00,CLR,,0.00,WeatherDisplay:10.37,2013-05-04 07:49:00,
2013-05-04 03:51:00,61.9,44.1,29.97,NE,54,3.3,5.8,52,0.00,CLR,,0.00,WeatherDisplay:10.37,2013-05-04 07:51:00,
2013-05-04 03:54:00,61.8,44.5,29.97,NE,49,4.6,6.9,53,0.00,CLR,,0.00,WeatherDisplay:10.37,2013-05-04 07:54:00,
2013-05-04 03:56:00,61.7,44.4,29.97,East,89,6.7,8.1,53,0.00,CLR,,0.00,WeatherDisplay:10.37,2013-05-04 07:56:00,
2013-05-04 03:57:00,61.8,44.0,29.97,East,99,5.0,11.5,52,0.00,CLR,,0.00,WeatherDisplay:10.37,2013-05-04 07:57:00,
2013-05-04 03:59:00,61.7,44.4,29.97,East,82,4.9,8.1,53,0.00,CLR,,0.00,WeatherDisplay:10.37,2013-05-04 07:59:00,
2013-05-04 04:00:00,61.7,44.4,29.97,East,82,5.0,12.0,53,0.00,CLR,,0.00,WeatherDisplay:10.37,2013-05-04 08:00:00,
2013-05-04 04:01:00,61.6,44.8,29.97,ESE,103,5.1,6.9,54,0.00,CLR,,0.00,WeatherDisplay:10.37,2013-05-04 08:01:00,
2013-05-04 04:02:00,61.6,44.3,29.97,SE,125,4.0,8.1,53,0.00,CLR,,0.00,WeatherDisplay:10.37,2013-05-04 08:02:00,
2013-05-04 04:04:00,61.5,44.7,29.97,ESE,123,3.6,9.2,54,0.00,CLR,,0.00,WeatherDisplay:10.37,2013-05-04 08:04:00,
2013-05-04 04:05:00,61.5,44.7,29.97,ESE,103,3.6,9.2,54,0.00,CLR,,0.00,WeatherDisplay:10.37,2013-05-04 08:05:00,
2013-05-04 04:06:00,61.4,44.6,29.97,ESE,110,5.1,8.1,54,0.00,CLR,,0.00,WeatherDisplay:10.37,2013-05-04 08:06:00,
2013-05-04 04:07:00,61.4,44.6,29.97,East,94,6.7,11.5,54,0.00,CLR,,0.00,WeatherDisplay:10.37,2013-05-04 08:07:00,
2013-05-04 04:10:00,61.4,44.6,29.97,ESE,109,6.3,9.2,54,0.00,CLR,,0.00,WeatherDisplay:10.37,2013-05-04 08:10:00,
2013-05-04 04:12:00,61.3,44.5,29.98,ENE,65,6.9,10.4,54,0.00,CLR,,0.00,WeatherDisplay:10.37,2013-05-04 08:12:00,
2013-05-04 04:15:00,61.4,44.6,29.98,ESE,120,4.8,10.4,54,0.00,CLR,,0.00,WeatherDisplay:10.37,2013-05-04 08:15:00,
2013-05-04 04:17:00,61.3,44.0,29.98,ESE,104,6.7,12.7,53,0.00,CLR,,0.00,WeatherDisplay:10.37,2013-05-04 08:17:00,
2013-05-04 04:18:00,61.3,44.0,29.98,East,100,7.8,15.0,53,0.00,CLR,,0.00,WeatherDisplay:10.37,2013-05-04 08:18:00,
2013-05-04 04:20:00,61.3,44.0,29.98,ESE,117,8.1,9.2,53,0.00,CLR,,0.00,WeatherDisplay:10.37,2013-05-04 08:20:00,
2013-05-04 04:21:00,61.3,44.0,29.98,ENE,78,8.0,9.2,53,0.00,CLR,,0.00,WeatherDisplay:10.37,2013-05-04 08:21:00,
2013-05-04 04:22:00,61.3,44.0,29.98,East,94,7.0,10.4,53,0.00,CLR,,0.00,WeatherDisplay:10.37,2013-05-04 08:22:00,
2013-05-04 04:23:00,61.3,44.5,29.98,NE,44,5.7,8.1,54,0.00,CLR,,0.00,WeatherDisplay:10.37,2013-05-04 08:23:00,
2013-05-04 04:25:00,61.2,43.9,29.98,East,80,8.0,10.4,53,0.00,CLR,,0.00,WeatherDisplay:10.37,2013-05-04 08:25:00,
2013-05-04 04:26:00,61.2,43.9,29.98,East,96,8.1,11.5,53,0.00,CLR,,0.00,WeatherDisplay:10.37,2013-05-04 08:26:00,
2013-05-04 04:27:00,61.2,44.4,29.98,East,86,5.9,11.0,54,0.00,CLR,,0.00,WeatherDisplay:10.37,2013-05-04 08:27:00,
2013-05-04 04:28:00,61.2,43.9,29.98,East,97,6.5,11.5,53,0.00,CLR,,0.00,WeatherDisplay:10.37,2013-05-04 08:28:00,
2013-05-04 04:31:00,61.2,43.9,29.98,East,98,5.3,9.2,53,0.00,CLR,,0.00,WeatherDisplay:10.37,2013-05-04 08:31:00,
2013-05-04 04:32:00,61.2,43.9,29.98,East,84,8.0,13.8,53,0.00,CLR,,0.00,WeatherDisplay:10.37,2013-05-04 08:32:00,
2013-05-04 04:33:00,61.2,43.9,29.98,ESE,103,5.5,11.5,53,0.00,CLR,,0.00,WeatherDisplay:10.37,2013-05-04 08:33:00,
2013-05-04 04:36:00,61.2,43.9,29.98,ESE,102,7.8,11.5,53,0.00,CLR,,0.00,WeatherDisplay:10.37,2013-05-04 08:36:00,
2013-05-04 04:37:00,61.2,43.9,29.98,ENE,66,3.8,11.5,53,0.00,CLR,,0.00,WeatherDisplay:10.37,2013-05-04 08:37:00,
2013-05-04 04:39:00,61.2,43.9,29.98,East,83,6.1,8.1,53,0.00,CLR,,0.00,WeatherDisplay:10.37,2013-05-04 08:39:00,
2013-05-04 04:41:00,61.1,43.8,29.98,East,84,4.7,11.5,53,0.00,CLR,,0.00,WeatherDisplay:10.37,2013-05-04 08:41:00,
2013-05-04 04:42:00,61.1,43.8,29.98,East,86,7.4,10.4,53,0.00,CLR,,0.00,WeatherDisplay:10.37,2013-05-04 08:42:00,
2013-05-04 04:44:00,61.1,43.8,29.98,East,97,7.6,11.5,53,0.00,CLR,,0.00,WeatherDisplay:10.37,2013-05-04 08:44:00,
2013-05-04 04:46:00,61.1,43.8,29.98,ESE,106,7.2,10.4,53,0.00,CLR,,0.00,WeatherDisplay:10.37,2013-05-04 08:46:00,
2013-05-04 04:47:00,61.1,43.8,29.98,ENE,71,5.8,9.2,53,0.00,CLR,,0.00,WeatherDisplay:10.37,2013-05-04 08:47:00,
2013-05-04 04:49:00,61.1,43.8,29.98,East,88,4.4,7.0,53,0.00,CLR,,0.00,WeatherDisplay:10.37,2013-05-04 08:49:00,
2013-05-04 04:51:00,61.0,43.7,29.98,ESE,105,4.6,8.0,53,0.00,CLR,,0.00,WeatherDisplay:10.37,2013-05-04 08:51:00,
2013-05-04 04:52:00,61.0,43.7,29.98,ENE,77,6.3,10.0,53,0.00,CLR,,0.00,WeatherDisplay:10.37,2013-05-04 08:52:00,
2013-05-04 04:53:00,61.0,43.7,29.98,East,86,7.1,10.4,53,0.00,CLR,,0.00,WeatherDisplay:10.37,2013-05-04 08:53:00,
2013-05-04 04:55:00,61.0,43.7,29.98,ENE,78,7.0,11.5,53,0.00,CLR,,0.00,WeatherDisplay:10.37,2013-05-04 08:55:00,
2013-05-04 04:57:00,61.1,43.8,29.98,ESE,118,7.3,10.4,53,0.00,CLR,,0.00,WeatherDisplay:10.37,2013-05-04 08:57:00,
2013-05-04 04:58:00,61.1,44.3,29.98,East,85,7.1,10.4,54,0.00,CLR,,0.00,WeatherDisplay:10.37,2013-05-04 08:58:00,
2013-05-04 05:00:00,61.1,43.8,29.98,East,100,5.9,11.5,53,0.00,CLR,,0.00,WeatherDisplay:10.37,2013-05-04 09:00:00,
2013-05-04 05:02:00,61.0,43.7,29.98,NE,51,6.3,10.4,53,0.00,CLR,,0.00,WeatherDisplay:10.37,2013-05-04 09:02:00,
2013-05-04 05:03:00,61.0,44.2,29.98,East,89,5.1,10.4,54,0.00,CLR,,0.00,WeatherDisplay:10.37,2013-05-04 09:03:00,
2013-05-04 05:06:00,61.0,43.7,29.98,ENE,62,5.2,8.1,53,0.00,CLR,,0.00,WeatherDisplay:10.37,2013-05-04 09:06:00,
2013-05-04 05:07:00,61.0,43.7,29.99,East,94,5.4,8.1,53,0.00,CLR,,0.00,WeatherDisplay:10.37,2013-05-04 09:07:00,
2013-05-04 05:08:00,61.0,43.7,29.98,East,88,8.0,12.7,53,0.00,CLR,,0.00,WeatherDisplay:10.37,2013-05-04 09:08:00,
2013-05-04 05:11:00,60.9,43.6,29.98,NE,40,5.5,11.5,53,0.00,CLR,,0.00,WeatherDisplay:10.37,2013-05-04 09:11:00,
2013-05-04 05:12:00,60.9,43.6,29.99,ENE,71,7.3,11.5,53,0.00,CLR,,0.00,WeatherDisplay:10.37,2013-05-04 09:12:00,
2013-05-04 05:13:00,60.9,44.1,29.99,East,94,6.4,8.1,54,0.00,CLR,,0.00,WeatherDisplay:10.37,2013-05-04 09:13:00,
2013-05-04 05:16:00,60.9,44.1,29.99,ENE,62,6.5,9.0,54,0.00,CLR,,0.00,WeatherDisplay:10.37,2013-05-04 09:16:00,
2013-05-04 05:17:00,60.9,43.6,29.99,ENE,71,6.4,11.5,53,0.00,CLR,,0.00,WeatherDisplay:10.37,2013-05-04 09:17:00,
2013-05-04 05:18:00,60.9,43.6,29.99,ENE,66,7.0,11.5,53,0.00,CLR,,0.00,WeatherDisplay:10.37,2013-05-04 09:18:00,
2013-05-04 05:21:00,60.9,43.6,29.99,ENE,70,5.6,10.4,53,0.00,CLR,,0.00,WeatherDisplay:10.37,2013-05-04 09:21:00,
2013-05-04 05:23:00,60.8,43.6,29.99,ENE,69,6.2,10.4,53,0.00,CLR,,0.00,WeatherDisplay:10.37,2013-05-04 09:23:00,
2013-05-04 05:24:00,60.8,43.6,29.99,ESE,118,6.5,10.4,53,0.00,CLR,,0.00,WeatherDisplay:10.37,2013-05-04 09:24:00,
2013-05-04 05:26:00,60.7,43.9,29.99,East,80,6.7,9.2,54,0.00,CLR,,0.00,WeatherDisplay:10.37,2013-05-04 09:26:00,
2013-05-04 05:28:00,60.7,43.9,29.99,NE,42,6.0,11.5,54,0.00,CLR,,0.00,WeatherDisplay:10.37,2013-05-04 09:28:00,
2013-05-04 05:29:00,60.7,43.9,29.99,ENE,69,7.1,10.4,54,0.00,CLR,,0.00,WeatherDisplay:10.37,2013-05-04 09:29:00,
2013-05-04 05:31:00,60.7,43.5,29.99,East,80,6.1,9.2,53,0.00,CLR,,0.00,WeatherDisplay:10.37,2013-05-04 09:31:00,
2013-05-04 05:33:00,60.7,43.9,29.99,East,98,6.4,10.4,54,0.00,CLR,,0.00,WeatherDisplay:10.37,2013-05-04 09:33:00,
2013-05-04 05:34:00,60.7,43.9,29.99,ENE,64,7.5,12.7,54,0.00,CLR,,0.00,WeatherDisplay:10.37,2013-05-04 09:34:00,
2013-05-04 05:36:00,60.7,43.9,29.99,ESE,102,4.9,9.0,54,0.00,CLR,,0.00,WeatherDisplay:10.37,2013-05-04 09:36:00,
2013-05-04 05:38:00,60.6,43.9,29.99,East,93,7.5,14.0,54,0.00,CLR,,0.00,WeatherDisplay:10.37,2013-05-04 09:38:00,
2013-05-04 05:39:00,60.6,43.9,29.99,ESE,103,8.0,13.8,54,0.00,CLR,,0.00,WeatherDisplay:10.37,2013-05-04 09:39:00,
2013-05-04 05:41:00,60.6,43.9,29.99,East,98,4.6,8.1,54,0.00,CLR,,0.00,WeatherDisplay:10.37,2013-05-04 09:41:00,
2013-05-04 05:44:00,60.5,43.8,29.99,East,82,6.4,10.4,54,0.00,CLR,,0.00,WeatherDisplay:10.37,2013-05-04 09:44:00,
2013-05-04 05:46:00,60.5,43.8,29.99,ESE,107,5.2,8.0,54,0.00,CLR,,0.00,WeatherDisplay:10.37,2013-05-04 09:46:00,
2013-05-04 05:49:00,60.4,43.7,29.99,East,90,3.5,6.9,54,0.00,CLR,,0.00,WeatherDisplay:10.37,2013-05-04 09:49:00,
2013-05-04 05:50:00,60.4,43.7,29.99,ESE,109,4.2,11.5,54,0.00,CLR,,0.00,WeatherDisplay:10.37,2013-05-04 09:50:00,
2013-05-04 05:52:00,60.4,43.7,29.99,NE,52,3.7,8.1,54,0.00,CLR,,0.00,WeatherDisplay:10.37,2013-05-04 09:52:00,
2013-05-04 05:54:00,60.4,43.7,29.99,East,88,4.5,6.0,54,0.00,CLR,,0.00,WeatherDisplay:10.37,2013-05-04 09:54:00,
2013-05-04 05:55:00,60.4,43.7,29.99,SE,126,4.0,11.5,54,0.00,CLR,,0.00,WeatherDisplay:10.37,2013-05-04 09:55:00,
2013-05-04 05:57:00,60.4,43.7,29.99,ENE,73,3.2,4.6,54,0.00,CLR,,0.00,WeatherDisplay:10.37,2013-05-04 09:57:00,
2013-05-04 05:59:00,60.3,44.1,29.99,ENE,74,5.6,8.1,55,0.00,CLR,,0.00,WeatherDisplay:10.37,2013-05-04 09:59:00,
2013-05-04 06:00:00,60.3,44.1,29.99,ENE,73,6.0,10.0,55,0.00,CLR,,0.00,WeatherDisplay:10.37,2013-05-04 10:00:00,
2013-05-04 06:03:00,60.2,44.0,29.99,East,86,3.6,6.9,55,0.00,CLR,,0.00,WeatherDisplay:10.37,2013-05-04 10:03:00,
2013-05-04 06:04:00,60.2,44.0,29.99,ENE,74,7.2,11.5,55,0.00,CLR,,0.00,WeatherDisplay:10.37,2013-05-04 10:04:00,
2013-05-04 06:05:00,60.2,44.0,29.99,ENE,75,7.2,9.2,55,0.00,CLR,,0.00,WeatherDisplay:10.37,2013-05-04 10:05:00,
2013-05-04 06:08:00,60.1,43.9,29.99,NE,44,6.6,10.4,55,0.00,CLR,,0.00,WeatherDisplay:10.37,2013-05-04 10:08:00,
2013-05-04 06:09:00,60.0,43.8,29.99,ENE,76,3.5,5.8,55,0.00,CLR,,0.00,WeatherDisplay:10.37,2013-05-04 10:09:00,
2013-05-04 06:10:00,60.0,43.8,29.99,ESE,107,3.8,5.8,55,0.00,CLR,,0.00,WeatherDisplay:10.37,2013-05-04 10:10:00,
2013-05-04 06:13:00,59.9,43.7,29.99,NE,54,6.0,11.5,55,0.00,CLR,,0.00,WeatherDisplay:10.37,2013-05-04 10:13:00,
2013-05-04 06:15:00,59.8,44.1,29.99,NNE,30,5.2,8.1,56,0.00,CLR,,0.00,WeatherDisplay:10.37,2013-05-04 10:15:00,
2013-05-04 06:18:00,59.6,43.9,29.99,East,84,3.8,6.9,56,0.00,CLR,,0.00,WeatherDisplay:10.37,2013-05-04 10:18:00,
2013-05-04 06:20:00,59.6,43.9,29.99,East,80,6.0,10.0,56,0.00,CLR,,0.00,WeatherDisplay:10.37,2013-05-04 10:20:00,
2013-05-04 06:23:00,59.4,44.2,29.99,East,90,4.9,12.7,57,0.00,CLR,,0.00,WeatherDisplay:10.37,2013-05-04 10:23:00,
2013-05-04 06:25:00,59.4,44.2,29.99,East,83,6.0,13.0,57,0.00,CLR,,0.00,WeatherDisplay:10.37,2013-05-04 10:25:00,
2013-05-04 06:26:00,59.3,44.1,29.99,East,94,5.1,8.1,57,0.00,CLR,,0.00,WeatherDisplay:10.37,2013-05-04 10:26:00,
2013-05-04 06:28:00,59.3,44.1,29.99,ENE,75,6.5,10.4,57,0.00,CLR,,0.00,WeatherDisplay:10.37,2013-05-04 10:28:00,
2013-05-04 06:30:00,59.3,44.1,29.99,East,101,5.2,8.1,57,0.00,CLR,,0.00,WeatherDisplay:10.37,2013-05-04 10:30:00,
2013-05-04 06:31:00,59.3,44.1,30.00,East,94,5.5,9.2,57,0.00,CLR,,0.00,WeatherDisplay:10.37,2013-05-04 10:31:00,
2013-05-04 06:33:00,59.3,44.5,30.00,East,82,5.3,9.2,58,0.00,CLR,,0.00,WeatherDisplay:10.37,2013-05-04 10:33:00,
2013-05-04 06:35:00,59.3,44.1,30.00,ESE,116,9.2,13.0,57,0.00,CLR,,0.00,WeatherDisplay:10.37,2013-05-04 10:35:00,
2013-05-04 06:36:00,59.3,44.5,30.00,East,94,7.7,12.7,58,0.00,CLR,,0.00,WeatherDisplay:10.37,2013-05-04 10:36:00,
2013-05-04 06:37:00,59.3,44.5,30.00,East,81,6.6,10.4,58,0.00,CLR,,0.00,WeatherDisplay:10.37,2013-05-04 10:37:00,
2013-05-04 06:38:00,59.3,44.5,30.00,East,94,5.9,8.1,58,0.00,CLR,,0.00,WeatherDisplay:10.37,2013-05-04 10:38:00,
2013-05-04 06:40:00,59.2,44.0,30.00,East,92,7.2,11.5,57,0.00,CLR,,0.00,WeatherDisplay:10.37,2013-05-04 10:40:00,
2013-05-04 06:41:00,59.2,44.4,30.00,ENE,65,5.6,8.1,58,0.00,CLR,,0.00,WeatherDisplay:10.37,2013-05-04 10:41:00,
2013-05-04 06:42:00,59.2,44.4,29.99,ENE,63,4.3,8.1,58,0.00,CLR,,0.00,WeatherDisplay:10.37,2013-05-04 10:42:00,
2013-05-04 06:43:00,59.2,44.4,30.00,East,84,5.0,6.9,58,0.00,CLR,,0.00,WeatherDisplay:10.37,2013-05-04 10:43:00,
2013-05-04 06:45:00,59.1,44.3,30.00,East,88,4.9,8.1,58,0.00,CLR,,0.00,WeatherDisplay:10.37,2013-05-04 10:45:00,
2013-05-04 06:46:00,59.1,44.3,30.00,East,96,4.3,8.1,58,0.00,CLR,,0.00,WeatherDisplay:10.37,2013-05-04 10:46:00,
2013-05-04 06:47:00,59.1,44.3,30.00,ESE,107,4.3,6.9,58,0.00,CLR,,0.00,WeatherDisplay:10.37,2013-05-04 10:47:00,
2013-05-04 06:48:00,59.1,44.8,30.00,NE,34,3.2,5.8,59,0.00,CLR,,0.00,WeatherDisplay:10.37,2013-05-04 10:48:00,
2013-05-04 06:50:00,59.0,44.2,30.00,East,84,3.8,9.2,58,0.00,CLR,,0.00,WeatherDisplay:10.37,2013-05-04 10:50:00,
2013-05-04 06:51:00,59.0,44.2,30.00,ENE,78,4.4,8.1,58,0.00,CLR,,0.00,WeatherDisplay:10.37,2013-05-04 10:51:00,
2013-05-04 06:52:00,59.0,44.7,30.00,East,88,4.5,9.0,59,0.00,CLR,,0.00,WeatherDisplay:10.37,2013-05-04 10:52:00,
2013-05-04 06:53:00,58.9,44.6,30.00,East,79,4.8,9.2,59,0.00,CLR,,0.00,WeatherDisplay:10.37,2013-05-04 10:53:00,
2013-05-04 06:55:00,58.9,44.6,30.00,ESE,120,8.1,9.2,59,0.00,CLR,,0.00,WeatherDisplay:10.37,2013-05-04 10:55:00,
2013-05-04 06:57:00,58.9,44.6,30.00,ENE,61,6.2,10.4,59,0.00,CLR,,0.00,WeatherDisplay:10.37,2013-05-04 10:57:00,
2013-05-04 06:58:00,58.9,44.6,30.00,East,90,4.6,8.1,59,0.00,CLR,,0.00,WeatherDisplay:10.37,2013-05-04 10:58:00,
2013-05-04 07:01:00,58.8,44.9,30.00,East,91,6.2,6.9,60,0.00,CLR,,0.00,WeatherDisplay:10.37,2013-05-04 11:01:00,
2013-05-04 07:02:00,58.8,44.9,30.00,East,83,3.0,5.8,60,0.00,CLR,,0.00,WeatherDisplay:10.37,2013-05-04 11:02:00,
2013-05-04 07:03:00,58.8,44.9,30.00,NE,38,6.1,9.2,60,0.00,CLR,,0.00,WeatherDisplay:10.37,2013-05-04 11:03:00,
2013-05-04 07:06:00,58.8,44.9,30.00,SE,134,5.3,10.4,60,0.00,CLR,,0.00,WeatherDisplay:10.37,2013-05-04 11:06:00,
2013-05-04 07:07:00,58.8,44.9,30.00,East,82,4.7,10.4,60,0.00,CLR,,0.00,WeatherDisplay:10.37,2013-05-04 11:07:00,
2013-05-04 07:08:00,58.8,44.9,30.00,East,82,5.0,10.0,60,0.00,CLR,,0.00,WeatherDisplay:10.37,2013-05-04 11:08:00,
2013-05-04 07:11:00,58.8,44.9,30.00,ENE,67,2.9,4.6,60,0.00,CLR,,0.00,WeatherDisplay:10.37,2013-05-04 11:11:00,
2013-05-04 07:13:00,58.7,44.8,30.00,NE,54,5.5,8.1,60,0.00,CLR,,0.00,WeatherDisplay:10.37,2013-05-04 11:13:00,
2013-05-04 07:14:00,58.7,45.3,30.00,NE,51,4.5,6.9,61,0.00,CLR,,0.00,WeatherDisplay:10.37,2013-05-04 11:14:00,
2013-05-04 07:16:00,58.7,44.8,30.00,East,89,6.0,9.0,60,0.00,CLR,,0.00,WeatherDisplay:10.37,2013-05-04 11:16:00,
2013-05-04 07:18:00,58.8,44.9,30.00,ENE,72,5.8,10.4,60,0.00,CLR,,0.00,WeatherDisplay:10.37,2013-05-04 11:18:00,
2013-05-04 07:19:00,58.8,45.4,30.00,East,88,5.3,9.2,61,0.00,CLR,,0.00,WeatherDisplay:10.37,2013-05-04 11:19:00,
2013-05-04 07:21:00,58.9,45.5,30.00,East,98,4.8,8.1,61,0.00,CLR,,0.00,WeatherDisplay:10.37,2013-05-04 11:21:00,
2013-05-04 07:23:00,58.9,45.5,30.00,East,100,4.1,5.8,61,0.00,CLR,,0.00,WeatherDisplay:10.37,2013-05-04 11:23:00,
2013-05-04 07:24:00,58.8,45.4,30.00,East,85,4.2,6.9,61,0.00,CLR,,0.00,WeatherDisplay:10.37,2013-05-04 11:24:00,
2013-05-04 07:26:00,58.9,45.5,30.00,ENE,77,6.7,11.5,61,0.00,CLR,,0.00,WeatherDisplay:10.37,2013-05-04 11:26:00,
2013-05-04 07:28:00,58.9,45.9,30.00,ESE,121,5.2,9.2,62,0.00,CLR,,0.00,WeatherDisplay:10.37,2013-05-04 11:28:00,
2013-05-04 07:29:00,58.9,45.5,30.00,NE,56,7.3,10.4,61,0.00,CLR,,0.00,WeatherDisplay:10.37,2013-05-04 11:29:00,
2013-05-04 07:31:00,58.9,45.5,30.00,ENE,71,7.9,12.7,61,0.00,CLR,,0.00,WeatherDisplay:10.37,2013-05-04 11:31:00,
2013-05-04 07:33:00,58.9,45.9,30.00,ENE,61,4.0,9.2,62,0.00,CLR,,0.00,WeatherDisplay:10.37,2013-05-04 11:33:00,
2013-05-04 07:34:00,58.9,45.9,30.00,ESE,123,4.4,6.9,62,0.00,CLR,,0.00,WeatherDisplay:10.37,2013-05-04 11:34:00,
2013-05-04 07:37:00,58.9,45.9,30.00,East,96,3.8,11.0,62,0.00,CLR,,0.00,WeatherDisplay:10.37,2013-05-04 11:37:00,
2013-05-04 07:38:00,58.9,45.9,30.00,ESE,110,5.8,11.5,62,0.00,CLR,,0.00,WeatherDisplay:10.37,2013-05-04 11:38:00,
2013-05-04 07:39:00,58.9,45.9,30.00,East,84,3.7,8.1,62,0.00,CLR,,0.00,WeatherDisplay:10.37,2013-05-04 11:39:00,
2013-05-04 07:42:00,58.9,45.9,30.00,ENE,65,8.0,10.4,62,0.00,CLR,,0.00,WeatherDisplay:10.37,2013-05-04 11:42:00,
2013-05-04 07:44:00,58.9,45.9,30.00,East,94,6.6,11.5,62,0.00,CLR,,0.00,WeatherDisplay:10.37,2013-05-04 11:44:00,
2013-05-04 07:47:00,59.0,46.0,30.00,ENE,76,7.7,9.2,62,0.00,CLR,,0.00,WeatherDisplay:10.37,2013-05-04 11:47:00,
2013-05-04 07:49:00,59.0,46.4,30.00,East,88,6.1,9.2,63,0.00,CLR,,0.00,WeatherDisplay:10.37,2013-05-04 11:49:00,
2013-05-04 07:51:00,59.0,46.4,30.00,ENE,77,5.1,9.2,63,0.00,CLR,,0.00,WeatherDisplay:10.37,2013-05-04 11:51:00,
2013-05-04 07:52:00,59.1,46.5,30.00,East,88,5.5,9.2,63,0.00,CLR,,0.00,WeatherDisplay:10.37,2013-05-04 11:52:00,
2013-05-04 07:54:00,59.1,46.1,30.00,East,92,8.9,13.8,62,0.00,CLR,,0.00,WeatherDisplay:10.37,2013-05-04 11:54:00,
2013-05-04 07:55:00,59.2,46.2,30.01,ESE,115,3.6,10.4,62,0.00,CLR,,0.00,WeatherDisplay:10.37,2013-05-04 11:55:00,
2013-05-04 07:56:00,59.2,46.2,30.01,East,94,3.5,10.4,62,0.00,CLR,,0.00,WeatherDisplay:10.37,2013-05-04 11:56:00,
2013-05-04 07:58:00,59.2,46.6,30.01,ENE,68,5.1,8.0,63,0.00,CLR,,0.00,WeatherDisplay:10.37,2013-05-04 11:58:00,
2013-05-04 08:00:00,59.3,46.7,30.01,East,97,7.7,8.1,63,0.00,CLR,,0.00,WeatherDisplay:10.37,2013-05-04 12:00:00,
2013-05-04 08:01:00,59.3,46.7,30.01,ENE,61,5.6,11.5,63,0.00,CLR,,0.00,WeatherDisplay:10.37,2013-05-04 12:01:00,
2013-05-04 08:04:00,59.3,46.7,30.01,East,89,6.0,7.0,63,0.00,CLR,,0.00,WeatherDisplay:10.37,2013-05-04 12:04:00,
2013-05-04 08:05:00,59.3,46.7,30.01,ENE,74,6.7,9.2,63,0.00,CLR,,0.00,WeatherDisplay:10.37,2013-05-04 12:05:00,
2013-05-04 08:06:00,59.3,46.7,30.01,East,94,7.5,11.5,63,0.00,CLR,,0.00,WeatherDisplay:10.37,2013-05-04 12:06:00,
2013-05-04 08:09:00,59.4,46.8,30.01,ENE,66,5.0,10.4,63,0.00,CLR,,0.00,WeatherDisplay:10.37,2013-05-04 12:09:00,
2013-05-04 08:11:00,59.4,46.8,30.00,ENE,77,7.2,10.4,63,0.00,CLR,,0.00,WeatherDisplay:10.37,2013-05-04 12:11:00,
2013-05-04 08:12:00,59.4,46.8,30.01,ESE,119,5.3,7.0,63,0.00,CLR,,0.00,WeatherDisplay:10.37,2013-05-04 12:12:00,
2013-05-04 08:15:00,59.4,46.8,30.01,East,81,9.0,14.0,63,0.00,CLR,,0.00,WeatherDisplay:10.37,2013-05-04 12:15:00,
2013-05-04 08:16:00,59.4,46.8,30.01,ESE,109,5.0,9.2,63,0.00,CLR,,0.00,WeatherDisplay:10.37,2013-05-04 12:16:00,
2013-05-04 08:18:00,59.4,46.8,30.01,ENE,65,7.3,11.5,63,0.00,CLR,,0.00,WeatherDisplay:10.37,2013-05-04 12:18:00,
2013-05-04 08:20:00,59.4,46.8,30.01,NNE,24,6.1,10.4,63,0.00,CLR,,0.00,WeatherDisplay:10.37,2013-05-04 12:20:00,
2013-05-04 08:21:00,59.4,47.2,30.01,ESE,107,6.1,12.0,64,0.00,CLR,,0.00,WeatherDisplay:10.37,2013-05-04 12:21:00,
2013-05-04 08:23:00,59.5,46.9,30.01,East,98,7.1,10.4,63,0.00,CLR,,0.00,WeatherDisplay:10.37,2013-05-04 12:23:00,
2013-05-04 08:25:00,59.5,47.3,30.01,East,89,8.7,9.2,64,0.00,CLR,,0.00,WeatherDisplay:10.37,2013-05-04 12:25:00,
2013-05-04 08:27:00,59.5,47.3,30.01,ENE,58,6.5,10.4,64,0.00,CLR,,0.00,WeatherDisplay:10.37,2013-05-04 12:27:00,
2013-05-04 08:29:00,59.5,47.3,30.01,East,98,6.2,11.5,64,0.00,CLR,,0.00,WeatherDisplay:10.37,2013-05-04 12:29:00,
2013-05-04 08:31:00,59.5,47.3,30.01,NE,56,5.4,8.1,64,0.00,CLR,,0.00,WeatherDisplay:10.37,2013-05-04 12:31:00,
2013-05-04 08:32:00,59.5,47.3,30.01,East,79,7.4,11.5,64,0.00,CLR,,0.00,WeatherDisplay:10.37,2013-05-04 12:32:00,
2013-05-04 08:34:00,59.5,47.3,30.01,ESE,112,5.9,11.5,64,0.00,CLR,,0.00,WeatherDisplay:10.37,2013-05-04 12:34:00,
2013-05-04 08:36:00,59.5,47.3,30.01,East,87,6.6,11.5,64,0.00,CLR,,0.00,WeatherDisplay:10.37,2013-05-04 12:36:00,
2013-05-04 08:37:00,59.5,47.3,30.01,East,94,6.1,11.5,64,0.00,CLR,,0.00,WeatherDisplay:10.37,2013-05-04 12:37:00,
2013-05-04 08:39:00,59.5,47.7,30.01,East,84,5.7,11.5,65,0.00,CLR,,0.00,WeatherDisplay:10.37,2013-05-04 12:39:00,
2013-05-04 08:41:00,59.5,47.3,30.01,East,90,7.2,9.2,64,0.00,CLR,,0.00,WeatherDisplay:10.37,2013-05-04 12:41:00,
2013-05-04 08:42:00,59.6,47.4,30.01,ESE,102,6.8,11.5,64,0.00,CLR,,0.00,WeatherDisplay:10.37,2013-05-04 12:42:00,
2013-05-04 08:44:00,59.6,47.4,30.01,ENE,65,6.9,11.5,64,0.00,CLR,,0.00,WeatherDisplay:10.37,2013-05-04 12:44:00,
2013-05-04 08:47:00,59.7,47.5,30.01,East,92,8.9,12.7,64,0.00,CLR,,0.00,WeatherDisplay:10.37,2013-05-04 12:47:00,
2013-05-04 08:49:00,59.8,47.6,30.01,East,86,8.3,15.0,64,0.00,CLR,,0.00,WeatherDisplay:10.37,2013-05-04 12:49:00,
2013-05-04 08:53:00,59.9,47.7,30.01,ESE,109,7.8,12.7,64,0.00,CLR,,0.00,WeatherDisplay:10.37,2013-05-04 12:53:00,
2013-05-04 08:54:00,59.9,47.7,30.01,ENE,76,9.4,11.5,64,0.00,CLR,,0.00,WeatherDisplay:10.37,2013-05-04 12:54:00,
2013-05-04 08:55:00,60.0,47.8,30.01,ESE,105,7.9,11.5,64,0.00,CLR,,0.00,WeatherDisplay:10.37,2013-05-04 12:55:00,
2013-05-04 08:58:00,60.0,47.8,30.01,SE,128,7.5,11.5,64,0.00,CLR,,0.00,WeatherDisplay:10.37,2013-05-04 12:58:00,
2013-05-04 08:59:00,60.1,47.9,30.01,NE,46,8.6,13.0,64,0.00,CLR,,0.00,WeatherDisplay:10.37,2013-05-04 12:59:00,
2013-05-04 09:00:00,60.2,48.0,30.01,East,82,9.3,12.7,64,0.00,CLR,,0.00,WeatherDisplay:10.37,2013-05-04 13:00:00,
2013-05-04 09:03:00,60.3,48.1,30.01,East,88,8.5,11.5,64,0.00,CLR,,0.00,WeatherDisplay:10.37,2013-05-04 13:03:00,
2013-05-04 09:04:00,60.4,48.2,30.01,ESE,106,6.8,12.7,64,0.00,CLR,,0.00,WeatherDisplay:10.37,2013-05-04 13:04:00,
2013-05-04 09:05:00,60.4,47.7,30.01,ESE,117,8.3,11.5,63,0.00,CLR,,0.00,WeatherDisplay:10.37,2013-05-04 13:05:00,
2013-05-04 09:08:00,60.6,48.4,30.01,ENE,78,8.2,11.5,64,0.00,CLR,,0.00,WeatherDisplay:10.37,2013-05-04 13:08:00,
2013-05-04 09:09:00,60.7,48.4,30.01,ENE,69,7.5,12.7,64,0.00,CLR,,0.00,WeatherDisplay:10.37,2013-05-04 13:09:00,
2013-05-04 09:10:00,60.7,48.4,30.01,SE,128,6.6,10.4,64,0.00,CLR,,0.00,WeatherDisplay:10.37,2013-05-04 13:10:00,
2013-05-04 09:13:00,61.0,48.7,30.01,East,80,8.8,17.0,64,0.00,CLR,,0.00,WeatherDisplay:10.37,2013-05-04 13:13:00,
2013-05-04 09:14:00,61.1,48.0,30.01,East,94,10.4,17.3,62,0.00,CLR,,0.00,WeatherDisplay:10.37,2013-05-04 13:14:00,
2013-05-04 09:15:00,61.1,48.8,30.01,East,99,4.3,10.4,64,0.00,CLR,,0.00,WeatherDisplay:10.37,2013-05-04 13:15:00,
2013-05-04 09:18:00,61.4,48.3,30.01,ESE,103,8.4,12.7,62,0.00,CLR,,0.00,WeatherDisplay:10.37,2013-05-04 13:18:00,
2013-05-04 09:19:00,61.4,48.3,30.01,NE,56,5.6,11.5,62,0.00,CLR,,0.00,WeatherDisplay:10.37,2013-05-04 13:19:00,
2013-05-04 09:20:00,61.6,48.9,30.01,ENE,59,6.5,10.4,63,0.00,CLR,,0.00,WeatherDisplay:10.37,2013-05-04 13:20:00,
2013-05-04 09:23:00,61.8,48.6,30.01,East,94,6.3,10.4,62,0.00,CLR,,0.00,WeatherDisplay:10.37,2013-05-04 13:23:00,
2013-05-04 09:24:00,61.8,48.6,30.01,ENE,61,6.3,10.4,62,0.00,CLR,,0.00,WeatherDisplay:10.37,2013-05-04 13:24:00,
2013-05-04 09:25:00,62.0,48.8,30.01,East,84,8.3,12.7,62,0.00,CLR,,0.00,WeatherDisplay:10.37,2013-05-04 13:25:00,
2013-05-04 09:29:00,62.1,48.5,30.01,ESE,108,6.6,11.5,61,0.00,CLR,,0.00,WeatherDisplay:10.37,2013-05-04 13:29:00,
2013-05-04 09:30:00,62.2,49.0,30.01,ESE,119,6.0,11.5,62,0.00,CLR,,0.00,WeatherDisplay:10.37,2013-05-04 13:30:00,
2013-05-04 09:34:00,62.4,49.2,30.01,ESE,113,6.9,11.5,62,0.00,CLR,,0.00,WeatherDisplay:10.37,2013-05-04 13:34:00,
2013-05-04 09:35:00,62.4,48.8,30.01,SE,130,8.9,12.7,61,0.00,CLR,,0.00,WeatherDisplay:10.37,2013-05-04 13:35:00,
2013-05-04 09:39:00,62.6,49.0,30.01,SE,124,8.2,12.7,61,0.00,CLR,,0.00,WeatherDisplay:10.37,2013-05-04 13:39:00,
2013-05-04 09:40:00,62.6,48.5,30.01,ENE,65,6.1,12.7,60,0.00,CLR,,0.00,WeatherDisplay:10.37,2013-05-04 13:40:00,
2013-05-04 09:41:00,62.6,49.0,30.01,East,98,6.1,10.4,61,0.00,CLR,,0.00,WeatherDisplay:10.37,2013-05-04 13:41:00,
2013-05-04 09:44:00,62.6,48.5,30.01,ENE,73,8.7,16.1,60,0.00,CLR,,0.00,WeatherDisplay:10.37,2013-05-04 13:44:00,
2013-05-04 09:45:00,62.6,48.5,30.01,East,96,4.6,9.2,60,0.00,CLR,,0.00,WeatherDisplay:10.37,2013-05-04 13:45:00,
2013-05-04 09:47:00,62.6,49.0,30.01,East,92,6.6,9.2,61,0.00,CLR,,0.00,WeatherDisplay:10.37,2013-05-04 13:47:00,
2013-05-04 09:49:00,62.7,48.6,30.01,ENE,67,8.9,16.1,60,0.00,CLR,,0.00,WeatherDisplay:10.37,2013-05-04 13:49:00,
2013-05-04 09:50:00,62.7,48.6,30.01,East,89,6.5,11.5,60,0.00,CLR,,0.00,WeatherDisplay:10.37,2013-05-04 13:50:00,
2013-05-04 09:51:00,62.7,48.6,30.01,ENE,76,6.6,10.0,60,0.00,CLR,,0.00,WeatherDisplay:10.37,2013-05-04 13:51:00,
2013-05-04 09:52:00,62.8,48.3,30.01,ENE,75,9.5,13.8,59,0.00,CLR,,0.00,WeatherDisplay:10.37,2013-05-04 13:52:00,
2013-05-04 09:54:00,62.8,48.7,30.01,SE,144,6.4,11.5,60,0.00,CLR,,0.00,WeatherDisplay:10.37,2013-05-04 13:54:00,
2013-05-04 09:55:00,62.9,48.3,30.01,ENE,65,6.4,10.4,59,0.00,CLR,,0.00,WeatherDisplay:10.37,2013-05-04 13:55:00,
2013-05-04 09:56:00,62.9,48.3,30.01,ENE,75,5.7,9.2,59,0.00,CLR,,0.00,WeatherDisplay:10.37,2013-05-04 13:56:00,
2013-05-04 09:57:00,62.9,47.9,30.01,ESE,123,8.1,11.5,58,0.00,CLR,,0.00,WeatherDisplay:10.37,2013-05-04 13:57:00,
2013-05-04 09:59:00,63.0,48.4,30.01,ENE,67,7.0,9.2,59,0.00,CLR,,0.00,WeatherDisplay:10.37,2013-05-04 13:59:00,
2013-05-04 10:01:00,63.0,48.4,30.01,ENE,75,6.8,8.1,59,0.00,CLR,,0.00,WeatherDisplay:10.37,2013-05-04 14:01:00,
2013-05-04 10:02:00,63.1,48.5,30.01,ESE,122,5.7,10.4,59,0.00,CLR,,0.00,WeatherDisplay:10.37,2013-05-04 14:02:00,
2013-05-04 10:05:00,63.1,48.5,30.01,East,92,6.0,13.0,59,0.00,CLR,,0.00,WeatherDisplay:10.37,2013-05-04 14:05:00,
2013-05-04 10:06:00,63.2,48.2,30.01,ENE,76,4.6,7.0,58,0.00,CLR,,0.00,WeatherDisplay:10.37,2013-05-04 14:06:00,
2013-05-04 10:07:00,63.2,48.6,30.01,ESE,123,5.4,8.1,59,0.00,CLR,,0.00,WeatherDisplay:10.37,2013-05-04 14:07:00,
2013-05-04 10:10:00,63.3,49.2,30.01,ESE,105,4.8,12.7,60,0.00,CLR,,0.00,WeatherDisplay:10.37,2013-05-04 14:10:00,
2013-05-04 10:11:00,63.3,48.7,30.01,ENE,64,7.4,13.8,59,0.00,CLR,,0.00,WeatherDisplay:10.37,2013-05-04 14:11:00,
2013-05-04 10:12:00,63.3,47.8,30.01,East,79,7.5,12.7,57,0.00,CLR,,0.00,WeatherDisplay:10.37,2013-05-04 14:12:00,
2013-05-04 10:15:00,63.4,48.4,30.00,ESE,103,4.9,10.4,58,0.00,CLR,,0.00,WeatherDisplay:10.37,2013-05-04 14:15:00,
2013-05-04 10:17:00,63.5,48.9,30.01,ENE,69,6.3,10.4,59,0.00,CLR,,0.00,WeatherDisplay:10.37,2013-05-04 14:17:00,
2013-05-04 10:18:00,63.5,48.5,30.01,East,88,6.2,11.5,58,0.00,CLR,,0.00,WeatherDisplay:10.37,2013-05-04 14:18:00,
2013-05-04 10:20:00,63.7,49.1,30.01,East,96,6.4,9.2,59,0.00,CLR,,0.00,WeatherDisplay:10.37,2013-05-04 14:20:00,
2013-05-04 10:22:00,63.8,48.7,30.01,East,101,3.9,8.1,58,0.00,CLR,,0.00,WeatherDisplay:10.37,2013-05-04 14:22:00,
2013-05-04 10:23:00,63.9,49.3,30.01,NE,43,4.0,7.0,59,0.00,CLR,,0.00,WeatherDisplay:10.37,2013-05-04 14:23:00,
2013-05-04 10:26:00,64.0,48.9,30.01,East,79,6.4,12.7,58,0.00,CLR,,0.00,WeatherDisplay:10.37,2013-05-04 14:26:00,
2013-05-04 10:27:00,64.0,48.5,30.01,East,97,9.8,15.0,57,0.00,CLR,,0.00,WeatherDisplay:10.37,2013-05-04 14:27:00,
2013-05-04 10:28:00,64.0,48.5,30.01,East,86,7.4,11.5,57,0.00,CLR,,0.00,WeatherDisplay:10.37,2013-05-04 14:28:00,
2013-05-04 10:31:00,63.8,48.3,30.01,ESE,112,6.8,8.1,57,0.00,CLR,,0.00,WeatherDisplay:10.37,2013-05-04 14:31:00,
2013-05-04 10:32:00,63.9,48.8,30.01,ESE,104,4.5,9.2,58,0.00,CLR,,0.00,WeatherDisplay:10.37,2013-05-04 14:32:00,
2013-05-04 10:33:00,63.9,48.4,30.01,ESE,122,5.4,8.0,57,0.00,CLR,,0.00,WeatherDisplay:10.37,2013-05-04 14:33:00,
2013-05-04 10:34:00,63.9,48.4,30.01,ESE,113,6.2,7.0,57,0.00,CLR,,0.00,WeatherDisplay:10.37,2013-05-04 14:34:00,
2013-05-04 10:36:00,64.0,49.4,30.01,ENE,68,3.0,5.8,59,0.00,CLR,,0.00,WeatherDisplay:10.37,2013-05-04 14:36:00,
2013-05-04 10:38:00,64.1,48.5,30.01,ENE,59,8.5,12.7,57,0.00,CLR,,0.00,WeatherDisplay:10.37,2013-05-04 14:38:00,
2013-05-04 10:39:00,64.1,48.1,30.01,ESE,120,9.4,13.8,56,0.00,CLR,,0.00,WeatherDisplay:10.37,2013-05-04 14:39:00,
2013-05-04 10:41:00,64.2,48.2,30.01,East,95,8.9,12.7,56,0.00,CLR,,0.00,WeatherDisplay:10.37,2013-05-04 14:41:00,
2013-05-04 10:43:00,64.3,48.3,30.01,ENE,58,6.8,10.0,56,0.00,CLR,,0.00,WeatherDisplay:10.37,2013-05-04 14:43:00,
2013-05-04 10:44:00,64.4,48.4,30.01,ENE,76,8.5,11.5,56,0.00,CLR,,0.00,WeatherDisplay:10.37,2013-05-04 14:44:00,
2013-05-04 10:46:00,64.6,48.5,30.01,ESE,115,7.3,9.0,56,0.00,CLR,,0.00,WeatherDisplay:10.37,2013-05-04 14:46:00,
2013-05-04 10:48:00,64.7,48.6,30.01,East,91,10.3,13.0,56,0.00,CLR,,0.00,WeatherDisplay:10.37,2013-05-04 14:48:00,
2013-05-04 10:49:00,64.6,48.5,30.01,East,93,11.1,16.1,56,0.00,CLR,,0.00,WeatherDisplay:10.37,2013-05-04 14:49:00,
2013-05-04 10:52:00,64.6,48.5,30.01,SE,130,7.7,11.5,56,0.00,CLR,,0.00,WeatherDisplay:10.37,2013-05-04 14:52:00,
2013-05-04 10:53:00,64.6,48.5,30.01,SE,130,4.7,10.4,56,0.00,CLR,,0.00,WeatherDisplay:10.37,2013-05-04 14:53:00,
2013-05-04 10:55:00,64.7,49.1,30.01,East,100,5.0,15.0,57,0.00,CLR,,0.00,WeatherDisplay:10.37,2013-05-04 14:55:00,
2013-05-04 10:58:00,64.8,48.7,30.01,East,87,4.8,6.9,56,0.00,CLR,,0.00,WeatherDisplay:10.37,2013-05-04 14:58:00,
2013-05-04 11:00:00,64.9,48.3,30.01,ESE,107,5.5,9.2,55,0.00,CLR,,0.00,WeatherDisplay:10.37,2013-05-04 15:00:00,
2013-05-04 11:03:00,65.1,49.0,30.01,East,100,4.0,5.8,56,0.00,CLR,,0.00,WeatherDisplay:10.37,2013-05-04 15:03:00,
2013-05-04 11:05:00,65.1,48.5,30.02,East,96,5.0,8.1,55,0.00,CLR,,0.00,WeatherDisplay:10.37,2013-05-04 15:05:00,
2013-05-04 11:06:00,65.1,49.0,30.02,SE,124,5.1,10.4,56,0.00,CLR,,0.00,WeatherDisplay:10.37,2013-05-04 15:06:00,
2013-05-04 11:08:00,65.1,48.5,30.01,East,87,5.5,11.5,55,0.00,CLR,,0.00,WeatherDisplay:10.37,2013-05-04 15:08:00,
2013-05-04 11:10:00,65.0,48.4,30.02,ENE,75,8.5,13.8,55,0.00,CLR,,0.00,WeatherDisplay:10.37,2013-05-04 15:10:00,
2013-05-04 11:11:00,64.9,47.9,30.02,ESE,120,7.3,10.4,54,0.00,CLR,,0.00,WeatherDisplay:10.37,2013-05-04 15:11:00,
2013-05-04 11:13:00,64.9,48.8,30.02,East,96,6.3,9.2,56,0.00,CLR,,0.00,WeatherDisplay:10.37,2013-05-04 15:13:00,
2013-05-04 11:14:00,64.8,48.7,30.02,ESE,103,7.0,10.0,56,0.00,CLR,,0.00,WeatherDisplay:10.37,2013-05-04 15:14:00,
2013-05-04 11:15:00,64.8,48.2,30.02,East,84,7.8,15.0,55,0.00,CLR,,0.00,WeatherDisplay:10.37,2013-05-04 15:15:00,
2013-05-04 11:16:00,64.8,48.2,30.02,ENE,63,9.3,15.0,55,0.00,CLR,,0.00,WeatherDisplay:10.37,2013-05-04 15:16:00,
2013-05-04 11:18:00,64.7,48.2,30.02,East,96,7.0,10.4,55,0.00,CLR,,0.00,WeatherDisplay:10.37,2013-05-04 15:18:00,
2013-05-04 11:19:00,64.7,48.2,30.02,ESE,113,6.1,10.4,55,0.00,CLR,,0.00,WeatherDisplay:10.37,2013-05-04 15:19:00,
2013-05-04 11:21:00,64.7,49.6,30.02,ENE,65,3.7,5.8,58,0.00,CLR,,0.00,WeatherDisplay:10.37,2013-05-04 15:21:00,
2013-05-04 11:23:00,64.9,48.3,30.02,ESE,123,8.7,10.4,55,0.00,CLR,,0.00,WeatherDisplay:10.37,2013-05-04 15:23:00,
2013-05-04 11:24:00,64.9,48.3,30.02,East,89,7.6,15.0,55,0.00,CLR,,0.00,WeatherDisplay:10.37,2013-05-04 15:24:00,
2013-05-04 11:26:00,64.9,48.3,30.02,East,86,7.8,11.5,55,0.00,CLR,,0.00,WeatherDisplay:10.37,2013-05-04 15:26:00,
2013-05-04 11:28:00,64.9,47.9,30.02,SSE,153,6.4,10.4,54,0.00,CLR,,0.00,WeatherDisplay:10.37,2013-05-04 15:28:00,
2013-05-04 11:29:00,64.9,47.9,30.02,ENE,69,3.7,9.2,54,0.00,CLR,,0.00,WeatherDisplay:10.37,2013-05-04 15:29:00,
2013-05-04 11:31:00,65.1,49.0,30.02,SE,132,3.9,6.9,56,0.00,CLR,,0.00,WeatherDisplay:10.37,2013-05-04 15:31:00,
2013-05-04 11:33:00,65.3,48.2,30.02,ESE,107,9.6,12.7,54,0.00,CLR,,0.00,WeatherDisplay:10.37,2013-05-04 15:33:00,
2013-05-04 11:34:00,65.3,48.2,30.02,East,92,8.5,13.8,54,0.00,CLR,,0.00,WeatherDisplay:10.37,2013-05-04 15:34:00,
2013-05-04 11:36:00,65.2,48.6,30.02,East,99,9.3,15.0,55,0.00,CLR,,0.00,WeatherDisplay:10.37,2013-05-04 15:36:00,
2013-05-04 11:38:00,65.2,48.6,30.02,East,101,8.1,12.7,55,0.00,CLR,,0.00,WeatherDisplay:10.37,2013-05-04 15:38:00,
2013-05-04 11:39:00,65.2,48.6,30.02,East,80,10.1,12.7,55,0.00,CLR,,0.00,WeatherDisplay:10.37,2013-05-04 15:39:00,
2013-05-04 11:41:00,65.2,48.6,30.02,East,95,7.6,12.7,55,0.00,CLR,,0.00,WeatherDisplay:10.37,2013-05-04 15:41:00,
2013-05-04 11:43:00,65.2,48.1,30.02,East,90,8.4,13.8,54,0.00,CLR,,0.00,WeatherDisplay:10.37,2013-05-04 15:43:00,
2013-05-04 11:45:00,65.2,48.6,30.02,East,89,7.1,13.8,55,0.00,CLR,,0.00,WeatherDisplay:10.37,2013-05-04 15:45:00,
2013-05-04 11:47:00,65.4,48.8,30.02,SE,140,7.6,12.7,55,0.00,CLR,,0.00,WeatherDisplay:10.37,2013-05-04 15:47:00,
2013-05-04 11:48:00,65.4,48.8,30.02,East,82,7.4,11.5,55,0.00,CLR,,0.00,WeatherDisplay:10.37,2013-05-04 15:48:00,
2013-05-04 11:50:00,65.4,48.3,30.02,ENE,69,4.6,6.9,54,0.00,CLR,,0.00,WeatherDisplay:10.37,2013-05-04 15:50:00,
2013-05-04 11:51:00,65.4,49.3,30.02,East,96,4.4,8.1,56,0.00,CLR,,0.00,WeatherDisplay:10.37,2013-05-04 15:51:00,
2013-05-04 11:52:00,65.6,49.5,30.02,ENE,67,7.0,11.5,56,0.00,CLR,,0.00,WeatherDisplay:10.37,2013-05-04 15:52:00,
2013-05-04 11:54:00,65.6,48.5,30.02,East,83,8.5,11.5,54,0.00,CLR,,0.00,WeatherDisplay:10.37,2013-05-04 15:54:00,
2013-05-04 11:55:00,65.5,48.9,30.02,East,82,5.2,13.0,55,0.00,CLR,,0.00,WeatherDisplay:10.37,2013-05-04 15:55:00,
2013-05-04 11:56:00,65.5,48.4,30.02,East,86,6.7,12.7,54,0.00,CLR,,0.00,WeatherDisplay:10.37,2013-05-04 15:56:00,
2013-05-04 11:57:00,65.4,48.3,30.02,ESE,104,9.2,13.8,54,0.00,CLR,,0.00,WeatherDisplay:10.37,2013-05-04 15:57:00,
2013-05-04 11:59:00,65.4,48.3,30.02,SE,140,6.1,12.7,54,0.00,CLR,,0.00,WeatherDisplay:10.37,2013-05-04 15:59:00,
2013-05-04 12:00:00,65.4,48.3,30.02,East,85,6.4,12.7,54,0.00,CLR,,0.00,WeatherDisplay:10.37,2013-05-04 16:00:00,
2013-05-04 12:01:00,65.4,48.3,30.02,East,96,8.1,13.0,54,0.00,CLR,,0.00,WeatherDisplay:10.37,2013-05-04 16:01:00,
2013-05-04 12:02:00,65.4,47.8,30.02,East,95,9.3,12.7,53,0.00,CLR,,0.00,WeatherDisplay:10.37,2013-05-04 16:02:00,
2013-05-04 12:04:00,65.4,47.8,30.02,ESE,111,8.3,11.5,53,0.00,CLR,,0.00,WeatherDisplay:10.37,2013-05-04 16:04:00,
2013-05-04 12:06:00,65.5,47.9,30.02,ESE,120,7.1,13.8,53,0.00,CLR,,0.00,WeatherDisplay:10.37,2013-05-04 16:06:00,
2013-05-04 12:07:00,65.6,48.5,30.02,ESE,115,7.2,10.4,54,0.00,CLR,,0.00,WeatherDisplay:10.37,2013-05-04 16:07:00,
2013-05-04 12:09:00,65.8,49.2,30.02,ENE,64,7.3,12.7,55,0.00,CLR,,0.00,WeatherDisplay:10.37,2013-05-04 16:09:00,
2013-05-04 12:11:00,66.0,49.4,30.02,NE,34,7.9,12.7,55,0.00,CLR,,0.00,WeatherDisplay:10.37,2013-05-04 16:11:00,
2013-05-04 12:12:00,66.1,48.0,30.02,NE,55,7.8,13.8,52,0.00,CLR,,0.00,WeatherDisplay:10.37,2013-05-04 16:12:00,
2013-05-04 12:13:00,66.1,48.0,30.02,East,80,8.0,13.8,52,0.00,CLR,,0.00,WeatherDisplay:10.37,2013-05-04 16:13:00,
2013-05-04 12:15:00,66.2,48.0,30.02,NE,45,6.8,10.4,52,0.00,CLR,,0.00,WeatherDisplay:10.37,2013-05-04 16:15:00,
2013-05-04 12:16:00,66.2,48.6,30.02,SSE,163,4.7,10.4,53,0.00,CLR,,0.00,WeatherDisplay:10.37,2013-05-04 16:16:00,
2013-05-04 12:17:00,66.4,48.7,30.02,East,80,6.7,11.5,53,0.00,CLR,,0.00,WeatherDisplay:10.37,2013-05-04 16:17:00,
2013-05-04 12:18:00,66.4,48.7,30.02,East,80,6.7,11.5,53,0.00,CLR,,0.00,WeatherDisplay:10.37,2013-05-04 16:18:00,
2013-05-04 12:20:00,66.6,48.4,30.02,East,101,9.4,13.8,52,0.00,CLR,,0.00,WeatherDisplay:10.37,2013-05-04 16:20:00,
2013-05-04 12:21:00,66.6,48.9,30.02,East,87,6.2,12.7,53,0.00,CLR,,0.00,WeatherDisplay:10.37,2013-05-04 16:21:00,
2013-05-04 12:23:00,66.6,47.9,30.02,NNE,27,6.8,10.4,51,0.00,CLR,,0.00,WeatherDisplay:10.37,2013-05-04 16:23:00,
2013-05-04 12:25:00,66.6,47.9,30.02,ENE,59,6.6,11.0,51,0.00,CLR,,0.00,WeatherDisplay:10.37,2013-05-04 16:25:00,
2013-05-04 12:26:00,66.7,48.5,30.02,ENE,71,5.5,11.5,52,0.00,CLR,,0.00,WeatherDisplay:10.37,2013-05-04 16:26:00,
2013-05-04 12:28:00,66.8,48.1,30.02,NE,50,4.5,6.9,51,0.00,CLR,,0.00,WeatherDisplay:10.37,2013-05-04 16:28:00,
2013-05-04 12:30:00,67.1,48.9,30.01,ESE,118,6.1,11.5,52,0.00,CLR,,0.00,WeatherDisplay:10.37,2013-05-04 16:30:00,
2013-05-04 12:31:00,67.2,48.5,30.01,ENE,67,7.0,11.5,51,0.00,CLR,,0.00,WeatherDisplay:10.37,2013-05-04 16:31:00,
2013-05-04 12:33:00,67.3,48.0,30.01,NE,43,7.2,11.5,50,0.00,CLR,,0.00,WeatherDisplay:10.37,2013-05-04 16:33:00,
2013-05-04 12:34:00,67.3,48.5,30.01,ESE,102,5.6,11.5,51,0.00,CLR,,0.00,WeatherDisplay:10.37,2013-05-04 16:34:00,
2013-05-04 12:35:00,67.4,48.1,30.01,ENE,77,5.2,10.4,50,0.00,CLR,,0.00,WeatherDisplay:10.37,2013-05-04 16:35:00,
2013-05-04 12:36:00,67.4,49.2,30.01,East,96,6.5,13.0,52,0.00,CLR,,0.00,WeatherDisplay:10.37,2013-05-04 16:36:00,
2013-05-04 12:38:00,67.4,48.6,30.01,ENE,67,7.4,10.4,51,0.00,CLR,,0.00,WeatherDisplay:10.37,2013-05-04 16:38:00,
2013-05-04 12:39:00,67.4,47.6,30.01,ENE,75,6.6,11.0,49,0.00,CLR,,0.00,WeatherDisplay:10.37,2013-05-04 16:39:00,
2013-05-04 12:40:00,67.3,48.0,30.01,ENE,59,7.2,13.0,50,0.00,CLR,,0.00,WeatherDisplay:10.37,2013-05-04 16:40:00,
2013-05-04 12:41:00,67.2,47.4,30.01,NE,36,9.1,16.1,49,0.00,CLR,,0.00,WeatherDisplay:10.37,2013-05-04 16:41:00,
2013-05-04 12:43:00,67.0,47.2,30.01,ENE,73,8.7,11.5,49,0.00,CLR,,0.00,WeatherDisplay:10.37,2013-05-04 16:43:00,
2013-05-04 12:44:00,66.9,47.6,30.01,NE,43,7.6,12.7,50,0.00,CLR,,0.00,WeatherDisplay:10.37,2013-05-04 16:44:00,
2013-05-04 12:46:00,66.8,48.6,30.01,ENE,59,7.0,12.7,52,0.00,CLR,,0.00,WeatherDisplay:10.37,2013-05-04 16:46:00,
2013-05-04 12:47:00,66.8,48.1,30.01,ENE,65,9.0,11.5,51,0.00,CLR,,0.00,WeatherDisplay:10.37,2013-05-04 16:47:00,
2013-05-04 12:48:00,66.8,47.6,30.01,NE,46,8.6,11.5,50,0.00,CLR,,0.00,WeatherDisplay:10.37,2013-05-04 16:48:00,
2013-05-04 12:50:00,66.8,47.0,30.01,NNE,20,8.1,15.0,49,0.00,CLR,,0.00,WeatherDisplay:10.37,2013-05-04 16:50:00,
2013-05-04 12:51:00,66.9,48.7,30.01,ESE,102,5.8,8.1,52,0.00,CLR,,0.00,WeatherDisplay:10.37,2013-05-04 16:51:00,
2013-05-04 12:52:00,67.0,48.8,30.01,NE,55,6.2,11.5,52,0.00,CLR,,0.00,WeatherDisplay:10.37,2013-05-04 16:52:00,
2013-05-04 12:53:00,67.1,47.8,30.01,East,86,6.9,6.9,50,0.00,CLR,,0.00,WeatherDisplay:10.37,2013-05-04 16:53:00,
2013-05-04 12:54:00,67.1,47.8,30.01,ENE,68,7.0,11.5,50,0.00,CLR,,0.00,WeatherDisplay:10.37,2013-05-04 16:54:00,
2013-05-04 12:55:00,67.2,48.5,30.01,NNE,17,4.9,4.9,51,0.00,CLR,,0.00,WeatherDisplay:10.37,2013-05-04 16:55:00,
2013-05-04 12:56:00,67.2,48.5,30.01,NE,39,5.6,8.1,51,0.00,CLR,,0.00,WeatherDisplay:10.37,2013-05-04 16:56:00,
2013-05-04 12:57:00,67.4,50.2,30.01,NNE,22,4.5,9.2,54,0.00,CLR,,0.00,WeatherDisplay:10.37,2013-05-04 16:57:00,
2013-05-04 12:58:00,67.5,49.3,30.01,ENE,61,6.2,9.0,52,0.00,CLR,,0.00,WeatherDisplay:10.37,2013-05-04 16:58:00,
2013-05-04 12:59:00,67.5,49.3,30.01,East,98,7.3,9.2,52,0.00,CLR,,0.00,WeatherDisplay:10.37,2013-05-04 16:59:00,
2013-05-04 13:01:00,67.5,48.7,30.01,East,86,8.3,12.7,51,0.00,CLR,,0.00,WeatherDisplay:10.37,2013-05-04 17:01:00,
2013-05-04 13:02:00,67.5,48.7,30.01,NE,38,5.4,11.5,51,0.00,CLR,,0.00,WeatherDisplay:10.37,2013-05-04 17:02:00,
2013-05-04 13:04:00,67.5,48.7,30.01,East,88,6.0,8.1,51,0.00,CLR,,0.00,WeatherDisplay:10.37,2013-05-04 17:04:00,
2013-05-04 13:06:00,67.5,48.7,30.01,East,80,6.4,8.0,51,0.00,CLR,,0.00,WeatherDisplay:10.37,2013-05-04 17:06:00,
2013-05-04 13:08:00,67.5,49.3,30.00,ENE,76,5.9,10.0,52,0.00,CLR,,0.00,WeatherDisplay:10.37,2013-05-04 17:08:00,
2013-05-04 13:09:00,67.5,48.7,30.00,NE,38,9.9,15.0,51,0.00,CLR,,0.00,WeatherDisplay:10.37,2013-05-04 17:09:00,
2013-05-04 13:10:00,67.5,48.7,30.00,NNE,22,9.2,16.1,51,0.00,CLR,,0.00,WeatherDisplay:10.37,2013-05-04 17:10:00,
2013-05-04 13:11:00,67.4,48.6,30.00,ESE,115,6.9,10.4,51,0.00,CLR,,0.00,WeatherDisplay:10.37,2013-05-04 17:11:00,
2013-05-04 13:13:00,67.5,48.2,30.01,East,81,7.2,11.5,50,0.00,CLR,,0.00,WeatherDisplay:10.37,2013-05-04 17:13:00,
2013-05-04 13:15:00,67.5,47.7,30.01,East,91,6.2,12.7,49,0.00,CLR,,0.00,WeatherDisplay:10.37,2013-05-04 17:15:00,
2013-05-04 13:16:00,67.5,47.7,30.01,ENE,76,9.4,12.7,49,0.00,CLR,,0.00,WeatherDisplay:10.37,2013-05-04 17:16:00,
2013-05-04 13:17:00,67.5,47.7,30.01,East,79,9.4,13.8,49,0.00,CLR,,0.00,WeatherDisplay:10.37,2013-05-04 17:17:00,
2013-05-04 13:18:00,67.4,48.1,30.00,ESE,117,7.7,10.4,50,0.00,CLR,,0.00,WeatherDisplay:10.37,2013-05-04 17:18:00,
2013-05-04 13:20:00,67.5,48.7,30.01,ENE,61,6.3,9.0,51,0.00,CLR,,0.00,WeatherDisplay:10.37,2013-05-04 17:20:00,
2013-05-04 13:22:00,67.5,48.2,30.00,East,80,3.4,8.1,50,0.00,CLR,,0.00,WeatherDisplay:10.37,2013-05-04 17:22:00,
2013-05-04 13:24:00,67.6,48.8,30.00,ENE,75,6.6,9.2,51,0.00,CLR,,0.00,WeatherDisplay:10.37,2013-05-04 17:24:00,
2013-05-04 13:25:00,67.8,48.5,30.01,NE,54,7.9,12.7,50,0.00,CLR,,0.00,WeatherDisplay:10.37,2013-05-04 17:25:00,
2013-05-04 13:27:00,67.9,47.5,30.01,NE,51,5.8,8.1,48,0.00,CLR,,0.00,WeatherDisplay:10.37,2013-05-04 17:27:00,
2013-05-04 13:29:00,68.0,48.7,30.01,ESE,123,8.0,13.0,50,0.00,CLR,,0.00,WeatherDisplay:10.37,2013-05-04 17:29:00,
2013-05-04 13:30:00,68.0,47.0,30.01,NE,51,9.4,12.7,47,0.00,CLR,,0.00,WeatherDisplay:10.37,2013-05-04 17:30:00,
2013-05-04 13:31:00,68.0,48.1,30.01,East,86,7.9,16.1,49,0.00,CLR,,0.00,WeatherDisplay:10.37,2013-05-04 17:31:00,
2013-05-04 13:32:00,68.0,48.1,30.00,East,92,7.0,11.5,49,0.00,CLR,,0.00,WeatherDisplay:10.37,2013-05-04 17:32:00,
2013-05-04 13:34:00,68.2,47.8,30.00,ENE,68,7.1,15.0,48,0.00,CLR,,0.00,WeatherDisplay:10.37,2013-05-04 17:34:00,
2013-05-04 13:35:00,68.3,47.8,30.00,ENE,76,7.7,12.7,48,0.00,CLR,,0.00,WeatherDisplay:10.37,2013-05-04 17:35:00,
2013-05-04 13:37:00,68.3,46.7,30.00,ENE,57,7.4,11.5,46,0.00,CLR,,0.00,WeatherDisplay:10.37,2013-05-04 17:37:00,
2013-05-04 13:39:00,68.2,48.3,30.00,East,93,5.6,8.0,49,0.00,CLR,,0.00,WeatherDisplay:10.37,2013-05-04 17:39:00,
2013-05-04 13:40:00,68.3,47.8,30.00,NNE,14,7.9,12.7,48,0.00,CLR,,0.00,WeatherDisplay:10.37,2013-05-04 17:40:00,
2013-05-04 13:42:00,68.3,48.4,30.00,ESE,123,7.0,10.4,49,0.00,CLR,,0.00,WeatherDisplay:10.37,2013-05-04 17:42:00,
2013-05-04 13:43:00,68.3,47.8,30.00,ESE,104,8.4,10.4,48,0.00,CLR,,0.00,WeatherDisplay:10.37,2013-05-04 17:43:00,
2013-05-04 13:45:00,68.5,48.6,30.00,ENE,57,4.8,10.4,49,0.00,CLR,,0.00,WeatherDisplay:10.37,2013-05-04 17:45:00,
2013-05-04 13:46:00,68.4,47.4,30.00,North,355,9.1,15.0,47,0.00,CLR,,0.00,WeatherDisplay:10.37,2013-05-04 17:46:00,
2013-05-04 13:47:00,68.4,47.4,30.00,East,100,9.9,15.0,47,0.00,CLR,,0.00,WeatherDisplay:10.37,2013-05-04 17:47:00,
2013-05-04 13:48:00,68.4,47.4,30.00,East,79,8.1,15.0,47,0.00,CLR,,0.00,WeatherDisplay:10.37,2013-05-04 17:48:00,
2013-05-04 13:50:00,68.3,48.4,30.00,East,86,6.4,8.1,49,0.00,CLR,,0.00,WeatherDisplay:10.37,2013-05-04 17:50:00,
2013-05-04 13:51:00,68.3,47.8,30.00,East,84,8.8,10.4,48,0.00,CLR,,0.00,WeatherDisplay:10.37,2013-05-04 17:51:00,
2013-05-04 13:52:00,68.3,48.9,30.00,ENE,68,7.2,12.7,50,0.00,CLR,,0.00,WeatherDisplay:10.37,2013-05-04 17:52:00,
2013-05-04 13:53:00,68.4,48.5,29.99,ENE,60,4.3,8.1,49,0.00,CLR,,0.00,WeatherDisplay:10.37,2013-05-04 17:53:00,
2013-05-04 13:55:00,68.7,48.8,29.99,NNE,20,5.9,9.2,49,0.00,CLR,,0.00,WeatherDisplay:10.37,2013-05-04 17:55:00,
2013-05-04 13:57:00,68.9,48.9,29.99,ENE,76,5.9,9.2,49,0.00,CLR,,0.00,WeatherDisplay:10.37,2013-05-04 17:57:00,
2013-05-04 13:58:00,69.0,47.9,29.99,ENE,70,8.3,10.4,47,0.00,CLR,,0.00,WeatherDisplay:10.37,2013-05-04 17:58:00,
2013-05-04 14:01:00,69.2,47.5,29.99,NE,40,11.1,16.1,46,0.00,CLR,,0.00,WeatherDisplay:10.37,2013-05-04 18:01:00,
2013-05-04 14:02:00,69.1,47.4,29.99,NE,39,10.6,16.1,46,0.00,CLR,,0.00,WeatherDisplay:10.37,2013-05-04 18:02:00,
2013-05-04 14:03:00,69.0,46.8,29.99,East,88,10.1,16.1,45,0.00,CLR,,0.00,WeatherDisplay:10.37,2013-05-04 18:03:00,
2013-05-04 14:06:00,69.2,48.1,29.99,East,101,8.2,15.0,47,0.00,CLR,,0.00,WeatherDisplay:10.37,2013-05-04 18:06:00,
2013-05-04 14:07:00,69.2,46.9,29.99,East,99,10.3,15.0,45,0.00,CLR,,0.00,WeatherDisplay:10.37,2013-05-04 18:07:00,
2013-05-04 14:08:00,69.2,48.1,29.99,East,82,10.2,14.0,47,0.00,CLR,,0.00,WeatherDisplay:10.37,2013-05-04 18:08:00,
2013-05-04 14:11:00,69.0,46.8,29.99,ENE,69,6.6,10.4,45,0.00,CLR,,0.00,WeatherDisplay:10.37,2013-05-04 18:11:00,
2013-05-04 14:12:00,68.9,46.7,29.99,NNE,28,5.5,10.4,45,0.00,CLR,,0.00,WeatherDisplay:10.37,2013-05-04 18:12:00,
2013-05-04 14:13:00,68.8,47.2,29.99,NE,53,5.5,8.1,46,0.00,CLR,,0.00,WeatherDisplay:10.37,2013-05-04 18:13:00,
2013-05-04 14:14:00,68.9,47.8,29.99,East,91,3.9,6.9,47,0.00,CLR,,0.00,WeatherDisplay:10.37,2013-05-04 18:14:00,
2013-05-04 14:16:00,69.0,47.4,29.99,ENE,65,5.8,12.7,46,0.00,CLR,,0.00,WeatherDisplay:10.37,2013-05-04 18:16:00,
2013-05-04 14:17:00,69.0,46.8,29.99,ENE,75,7.9,10.4,45,0.00,CLR,,0.00,WeatherDisplay:10.37,2013-05-04 18:17:00,
2013-05-04 14:18:00,69.0,46.8,29.99,NNE,31,8.2,12.7,45,0.00,CLR,,0.00,WeatherDisplay:10.37,2013-05-04 18:18:00,
2013-05-04 14:19:00,69.0,47.4,29.99,East,82,9.0,15.0,46,0.00,CLR,,0.00,WeatherDisplay:10.37,2013-05-04 18:19:00,
2013-05-04 14:21:00,69.0,47.4,29.99,East,80,7.6,14.0,46,0.00,CLR,,0.00,WeatherDisplay:10.37,2013-05-04 18:21:00,
2013-05-04 14:22:00,69.1,46.9,29.99,East,97,9.0,13.8,45,0.00,CLR,,0.00,WeatherDisplay:10.37,2013-05-04 18:22:00,
2013-05-04 14:23:00,69.1,46.3,29.99,East,100,9.9,16.1,44,0.00,CLR,,0.00,WeatherDisplay:10.37,2013-05-04 18:23:00,
2013-05-04 14:24:00,69.1,46.3,29.99,East,86,9.9,16.1,44,0.00,CLR,,0.00,WeatherDisplay:10.37,2013-05-04 18:24:00,
2013-05-04 14:27:00,69.0,46.8,29.99,East,92,6.1,9.2,45,0.00,CLR,,0.00,WeatherDisplay:10.37,2013-05-04 18:27:00,
2013-05-04 14:28:00,69.1,46.9,29.99,NNE,33,8.7,11.5,45,0.00,CLR,,0.00,WeatherDisplay:10.37,2013-05-04 18:28:00,
2013-05-04 14:29:00,69.2,46.4,29.99,NE,35,11.3,12.7,44,0.00,CLR,,0.00,WeatherDisplay:10.37,2013-05-04 18:29:00,
2013-05-04 14:32:00,69.1,46.3,29.99,NE,43,9.4,16.1,44,0.00,CLR,,0.00,WeatherDisplay:10.37,2013-05-04 18:32:00,
2013-05-04 14:33:00,68.9,46.1,29.99,NE,53,10.3,19.6,44,0.00,CLR,,0.00,WeatherDisplay:10.37,2013-05-04 18:33:00,
2013-05-04 14:34:00,68.9,46.1,29.99,NNE,28,10.4,13.8,44,0.00,CLR,,0.00,WeatherDisplay:10.37,2013-05-04 18:34:00,
2013-05-04 14:35:00,68.9,45.5,29.99,NE,56,10.6,15.0,43,0.00,CLR,,0.00,WeatherDisplay:10.37,2013-05-04 18:35:00,
2013-05-04 14:37:00,69.0,46.2,29.98,East,82,9.1,13.8,44,0.00,CLR,,0.00,WeatherDisplay:10.37,2013-05-04 18:37:00,
2013-05-04 14:38:00,69.3,46.4,29.98,East,80,7.9,15.0,44,0.00,CLR,,0.00,WeatherDisplay:10.37,2013-05-04 18:38:00,
2013-05-04 14:40:00,69.4,46.5,29.98,NNE,15,11.5,14.0,44,0.00,CLR,,0.00,WeatherDisplay:10.37,2013-05-04 18:40:00,
2013-05-04 14:42:00,69.5,47.2,29.98,NE,44,10.5,12.7,45,0.00,CLR,,0.00,WeatherDisplay:10.37,2013-05-04 18:42:00,
2013-05-04 14:43:00,69.5,47.2,29.98,NNE,13,10.4,15.0,45,0.00,CLR,,0.00,WeatherDisplay:10.37,2013-05-04 18:43:00,
2013-05-04 14:45:00,69.5,47.2,29.98,NE,39,8.1,11.5,45,0.00,CLR,,0.00,WeatherDisplay:10.37,2013-05-04 18:45:00,
2013-05-04 14:47:00,69.5,46.6,29.98,NE,37,9.8,12.7,44,0.00,CLR,,0.00,WeatherDisplay:10.37,2013-05-04 18:47:00,
2013-05-04 14:48:00,69.5,46.6,29.98,NE,47,9.2,12.7,44,0.00,CLR,,0.00,WeatherDisplay:10.37,2013-05-04 18:48:00,
2013-05-04 14:49:00,69.5,46.0,29.98,East,86,7.8,12.7,43,0.00,CLR,,0.00,WeatherDisplay:10.37,2013-05-04 18:49:00,
2013-05-04 14:50:00,69.5,47.2,29.98,NE,54,5.4,9.2,45,0.00,CLR,,0.00,WeatherDisplay:10.37,2013-05-04 18:50:00,
2013-05-04 14:51:00,69.6,47.9,29.98,NE,44,5.4,9.2,46,0.00,CLR,,0.00,WeatherDisplay:10.37,2013-05-04 18:51:00,
2013-05-04 14:52:00,69.8,47.5,29.98,NE,44,5.0,11.5,45,0.00,CLR,,0.00,WeatherDisplay:10.37,2013-05-04 18:52:00,
2013-05-04 14:53:00,69.8,47.5,29.98,ENE,74,4.8,7.0,45,0.00,CLR,,0.00,WeatherDisplay:10.37,2013-05-04 18:53:00,
2013-05-04 14:54:00,69.9,48.2,29.98,ENE,57,5.9,10.4,46,0.00,CLR,,0.00,WeatherDisplay:10.37,2013-05-04 18:54:00,
2013-05-04 14:55:00,70.0,47.7,29.98,NE,51,7.4,12.0,45,0.00,CLR,,0.00,WeatherDisplay:10.37,2013-05-04 18:55:00,
2013-05-04 14:56:00,70.1,46.6,29.97,ENE,63,6.8,13.8,43,0.00,CLR,,0.00,WeatherDisplay:10.37,2013-05-04 18:56:00,
2013-05-04 14:57:00,70.1,46.6,29.97,NE,34,11.0,15.0,43,0.00,CLR,,0.00,WeatherDisplay:10.37,2013-05-04 18:57:00,
2013-05-04 14:58:00,70.1,46.6,29.98,East,81,11.0,18.4,43,0.00,CLR,,0.00,WeatherDisplay:10.37,2013-05-04 18:58:00,
2013-05-04 14:59:00,70.1,45.9,29.98,East,92,13.0,18.4,42,0.00,CLR,,0.00,WeatherDisplay:10.37,2013-05-04 18:59:00,
2013-05-04 15:00:00,70.0,45.8,29.98,NE,42,7.8,18.4,42,0.00,CLR,,0.00,WeatherDisplay:10.37,2013-05-04 19:00:00,
2013-05-04 15:01:00,69.8,46.3,29.97,NE,51,9.4,13.0,43,0.00,CLR,,0.00,WeatherDisplay:10.37,2013-05-04 19:01:00,
2013-05-04 15:02:00,69.8,45.7,29.97,ESE,114,13.3,14.0,42,0.00,CLR,,0.00,WeatherDisplay:10.37,2013-05-04 19:02:00,
2013-05-04 15:03:00,69.7,45.6,29.97,East,82,11.5,17.3,42,0.00,CLR,,0.00,WeatherDisplay:10.37,2013-05-04 19:03:00,
2013-05-04 15:04:00,69.7,46.2,29.97,East,84,7.5,15.0,43,0.00,CLR,,0.00,WeatherDisplay:10.37,2013-05-04 19:04:00,
2013-05-04 15:05:00,69.8,45.0,29.97,NE,46,10.3,16.1,41,0.00,CLR,,0.00,WeatherDisplay:10.37,2013-05-04 19:05:00,
2013-05-04 15:06:00,69.8,46.3,29.97,ENE,67,6.9,16.1,43,0.00,CLR,,0.00,WeatherDisplay:10.37,2013-05-04 19:06:00,
2013-05-04 15:08:00,69.9,45.8,29.97,ENE,77,7.6,13.8,42,0.00,CLR,,0.00,WeatherDisplay:10.37,2013-05-04 19:08:00,
2013-05-04 15:09:00,69.9,45.1,29.97,East,86,10.6,15.0,41,0.00,CLR,,0.00,WeatherDisplay:10.37,2013-05-04 19:09:00,
2013-05-04 15:11:00,70.0,45.8,29.97,East,82,9.4,16.1,42,0.00,CLR,,0.00,WeatherDisplay:10.37,2013-05-04 19:11:00,
2013-05-04 15:12:00,70.1,46.6,29.97,NE,37,8.2,10.4,43,0.00,CLR,,0.00,WeatherDisplay:10.37,2013-05-04 19:12:00,
2013-05-04 15:13:00,70.3,46.7,29.97,NNE,26,9.5,11.5,43,0.00,CLR,,0.00,WeatherDisplay:10.37,2013-05-04 19:13:00,
2013-05-04 15:14:00,70.4,46.8,29.97,ENE,74,6.2,12.7,43,0.00,CLR,,0.00,WeatherDisplay:10.37,2013-05-04 19:14:00,
2013-05-04 15:17:00,70.7,47.1,29.97,ENE,67,10.4,14.0,43,0.00,CLR,,0.00,WeatherDisplay:10.37,2013-05-04 19:17:00,
2013-05-04 15:18:00,70.8,46.6,29.97,NE,53,9.3,13.8,42,0.00,CLR,,0.00,WeatherDisplay:10.37,2013-05-04 19:18:00,
2013-05-04 15:19:00,70.8,46.6,29.97,ENE,70,8.9,11.5,42,0.00,CLR,,0.00,WeatherDisplay:10.37,2013-05-04 19:19:00,
2013-05-04 15:23:00,70.9,47.3,29.97,NE,44,10.6,11.5,43,0.00,CLR,,0.00,WeatherDisplay:10.37,2013-05-04 19:23:00,
2013-05-04 15:24:00,70.9,46.7,29.97,ENE,67,8.0,12.7,42,0.00,CLR,,0.00,WeatherDisplay:10.37,2013-05-04 19:24:00,
2013-05-04 15:28:00,71.0,46.7,29.97,NE,44,9.5,13.8,42,0.00,CLR,,0.00,WeatherDisplay:10.37,2013-05-04 19:28:00,
2013-05-04 15:29:00,71.0,48.0,29.97,NNE,21,9.5,13.8,44,0.00,CLR,,0.00,WeatherDisplay:10.37,2013-05-04 19:29:00,
2013-05-04 15:30:00,71.0,48.0,29.97,East,84,6.9,12.7,44,0.00,CLR,,0.00,WeatherDisplay:10.37,2013-05-04 19:30:00,
2013-05-04 15:33:00,71.0,46.7,29.97,NE,55,10.8,15.0,42,0.00,CLR,,0.00,WeatherDisplay:10.37,2013-05-04 19:33:00,
2013-05-04 15:34:00,71.0,46.1,29.97,NNE,32,11.5,16.1,41,0.00,CLR,,0.00,WeatherDisplay:10.37,2013-05-04 19:34:00,
2013-05-04 15:35:00,70.9,46.0,29.97,NE,34,10.3,16.1,41,0.00,CLR,,0.00,WeatherDisplay:10.37,2013-05-04 19:35:00,
2013-05-04 15:38:00,71.0,46.1,29.97,East,84,7.6,10.4,41,0.00,CLR,,0.00,WeatherDisplay:10.37,2013-05-04 19:38:00,
2013-05-04 15:39:00,71.0,46.1,29.97,ENE,72,9.1,12.7,41,0.00,CLR,,0.00,WeatherDisplay:10.37,2013-05-04 19:39:00,
2013-05-04 15:40:00,71.2,47.6,29.97,NE,42,6.0,14.0,43,0.00,CLR,,0.00,WeatherDisplay:10.37,2013-05-04 19:40:00,
2013-05-04 15:43:00,71.3,46.4,29.97,NNE,32,8.3,13.8,41,0.00,CLR,,0.00,WeatherDisplay:10.37,2013-05-04 19:43:00,
2013-05-04 15:44:00,71.4,47.1,29.97,East,94,4.4,6.9,42,0.00,CLR,,0.00,WeatherDisplay:10.37,2013-05-04 19:44:00,
2013-05-04 15:46:00,71.6,46.0,29.97,NE,47,7.5,11.5,40,0.00,CLR,,0.00,WeatherDisplay:10.37,2013-05-04 19:46:00,
2013-05-04 15:48:00,71.8,47.5,29.96,East,92,5.1,8.1,42,0.00,CLR,,0.00,WeatherDisplay:10.37,2013-05-04 19:48:00,
2013-05-04 15:49:00,72.0,47.0,29.96,ENE,77,3.6,8.1,41,0.00,CLR,,0.00,WeatherDisplay:10.37,2013-05-04 19:49:00,
2013-05-04 15:51:00,72.2,47.8,29.96,East,82,5.0,8.1,42,0.00,CLR,,0.00,WeatherDisplay:10.37,2013-05-04 19:51:00,
2013-05-04 15:53:00,72.4,46.7,29.96,ESE,117,6.1,10.0,40,0.00,CLR,,0.00,WeatherDisplay:10.37,2013-05-04 19:53:00,
2013-05-04 15:55:00,72.6,46.9,29.96,ESE,109,6.8,11.5,40,0.00,CLR,,0.00,WeatherDisplay:10.37,2013-05-04 19:55:00,
2013-05-04 15:56:00,72.6,46.2,29.96,East,93,7.9,13.0,39,0.00,CLR,,0.00,WeatherDisplay:10.37,2013-05-04 19:56:00,
2013-05-04 15:58:00,72.6,45.5,29.96,NE,44,8.3,11.5,38,0.00,CLR,,0.00,WeatherDisplay:10.37,2013-05-04 19:58:00,
2013-05-04 15:59:00,72.6,45.5,29.96,ESE,103,9.4,12.7,38,0.00,CLR,,0.00,WeatherDisplay:10.37,2013-05-04 19:59:00,
2013-05-04 16:00:00,72.6,46.2,29.96,ENE,57,9.9,16.1,39,0.00,CLR,,0.00,WeatherDisplay:10.37,2013-05-04 20:00:00,
2013-05-04 16:01:00,72.6,46.9,29.96,ESE,112,8.7,12.7,40,0.00,CLR,,0.00,WeatherDisplay:10.37,2013-05-04 20:01:00,
2013-05-04 16:03:00,72.7,45.6,29.96,East,83,6.8,11.5,38,0.00,CLR,,0.00,WeatherDisplay:10.37,2013-05-04 20:03:00,
2013-05-04 16:04:00,72.7,45.6,29.96,ENE,73,7.4,10.4,38,0.00,CLR,,0.00,WeatherDisplay:10.37,2013-05-04 20:04:00,
2013-05-04 16:05:00,72.7,44.9,29.96,ENE,76,8.2,12.7,37,0.00,CLR,,0.00,WeatherDisplay:10.37,2013-05-04 20:05:00,
2013-05-04 16:06:00,72.6,45.5,29.96,East,86,7.7,14.0,38,0.00,CLR,,0.00,WeatherDisplay:10.37,2013-05-04 20:06:00,
2013-05-04 16:08:00,72.5,46.1,29.96,East,84,4.7,8.1,39,0.00,CLR,,0.00,WeatherDisplay:10.37,2013-05-04 20:08:00,
2013-05-04 16:09:00,72.6,45.5,29.96,NNE,28,5.2,9.2,38,0.00,CLR,,0.00,WeatherDisplay:10.37,2013-05-04 20:09:00,
2013-05-04 16:10:00,72.5,44.0,29.96,NE,46,6.9,10.4,36,0.00,CLR,,0.00,WeatherDisplay:10.37,2013-05-04 20:10:00,
2013-05-04 16:11:00,72.5,44.0,29.96,NNE,32,4.9,8.1,36,0.00,CLR,,0.00,WeatherDisplay:10.37,2013-05-04 20:11:00,
2013-05-04 16:12:00,72.5,45.4,29.96,NE,52,4.2,8.1,38,0.00,CLR,,0.00,WeatherDisplay:10.37,2013-05-04 20:12:00,
2013-05-04 16:13:00,72.6,45.5,29.96,NE,54,11.3,11.5,38,0.00,CLR,,0.00,WeatherDisplay:10.37,2013-05-04 20:13:00,
2013-05-04 16:14:00,72.6,43.4,29.96,NE,55,10.9,15.0,35,0.00,CLR,,0.00,WeatherDisplay:10.37,2013-05-04 20:14:00,
2013-05-04 16:15:00,72.5,45.4,29.96,NNE,18,8.3,11.5,38,0.00,CLR,,0.00,WeatherDisplay:10.37,2013-05-04 20:15:00,
2013-05-04 16:16:00,72.5,45.4,29.96,NE,38,9.8,12.0,38,0.00,CLR,,0.00,WeatherDisplay:10.37,2013-05-04 20:16:00,
2013-05-04 16:17:00,72.5,44.0,29.96,NE,44,11.7,17.0,36,0.00,CLR,,0.00,WeatherDisplay:10.37,2013-05-04 20:17:00,
2013-05-04 16:18:00,72.3,43.8,29.96,East,82,8.9,17.3,36,0.00,CLR,,0.00,WeatherDisplay:10.37,2013-05-04 20:18:00,
2013-05-04 16:19:00,72.3,44.6,29.96,NE,44,5.3,13.8,37,0.00,CLR,,0.00,WeatherDisplay:10.37,2013-05-04 20:19:00,
2013-05-04 16:21:00,72.4,44.6,29.96,NE,41,4.7,9.2,37,0.00,CLR,,0.00,WeatherDisplay:10.37,2013-05-04 20:21:00,
2013-05-04 16:22:00,72.4,45.4,29.95,ENE,73,6.6,8.1,38,0.00,CLR,,0.00,WeatherDisplay:10.37,2013-05-04 20:22:00,
2013-05-04 16:23:00,72.6,45.5,29.95,ESE,106,6.5,13.8,38,0.00,CLR,,0.00,WeatherDisplay:10.37,2013-05-04 20:23:00,
2013-05-04 16:24:00,72.6,44.1,29.95,ENE,61,7.3,11.0,36,0.00,CLR,,0.00,WeatherDisplay:10.37,2013-05-04 20:24:00,
2013-05-04 16:26:00,72.6,44.8,29.95,ENE,61,12.0,19.6,37,0.00,CLR,,0.00,WeatherDisplay:10.37,2013-05-04 20:26:00,
2013-05-04 16:27:00,72.7,45.6,29.96,East,100,9.1,15.0,38,0.00,CLR,,0.00,WeatherDisplay:10.37,2013-05-04 20:27:00,
2013-05-04 16:29:00,72.9,46.5,29.96,East,94,9.3,13.8,39,0.00,CLR,,0.00,WeatherDisplay:10.37,2013-05-04 20:29:00,
2013-05-04 16:31:00,73.0,45.2,29.96,East,91,9.1,13.8,37,0.00,CLR,,0.00,WeatherDisplay:10.37,2013-05-04 20:31:00,
2013-05-04 16:32:00,73.0,45.9,29.96,NE,38,8.5,13.0,38,0.00,CLR,,0.00,WeatherDisplay:10.37,2013-05-04 20:32:00,
2013-05-04 16:34:00,72.9,45.1,29.96,East,80,8.0,10.4,37,0.00,CLR,,0.00,WeatherDisplay:10.37,2013-05-04 20:34:00,
2013-05-04 16:35:00,72.9,44.4,29.95,East,87,10.1,10.4,36,0.00,CLR,,0.00,WeatherDisplay:10.37,2013-05-04 20:35:00,
2013-05-04 16:36:00,72.7,43.5,29.95,East,90,8.9,15.0,35,0.00,CLR,,0.00,WeatherDisplay:10.37,2013-05-04 20:36:00,
2013-05-04 16:37:00,72.6,43.4,29.95,East,81,8.1,12.7,35,0.00,CLR,,0.00,WeatherDisplay:10.37,2013-05-04 20:37:00,
2013-05-04 16:39:00,72.3,44.6,29.95,ESE,105,7.5,12.7,37,0.00,CLR,,0.00,WeatherDisplay:10.37,2013-05-04 20:39:00,
2013-05-04 16:40:00,72.3,44.6,29.95,East,84,8.7,14.0,37,0.00,CLR,,0.00,WeatherDisplay:10.37,2013-05-04 20:40:00,
2013-05-04 16:41:00,72.0,42.8,29.96,ENE,67,10.4,16.1,35,0.00,CLR,,0.00,WeatherDisplay:10.37,2013-05-04 20:41:00,
2013-05-04 16:42:00,71.9,42.8,29.96,NE,44,9.1,13.8,35,0.00,CLR,,0.00,WeatherDisplay:10.37,2013-05-04 20:42:00,
2013-05-04 16:43:00,71.8,44.8,29.96,ENE,59,4.5,9.2,38,0.00,CLR,,0.00,WeatherDisplay:10.37,2013-05-04 20:43:00,
2013-05-04 16:44:00,71.7,44.7,29.96,NNE,28,8.1,13.0,38,0.00,CLR,,0.00,WeatherDisplay:10.37,2013-05-04 20:44:00,
2013-05-04 16:45:00,71.7,44.7,29.96,East,84,8.6,13.8,38,0.00,CLR,,0.00,WeatherDisplay:10.37,2013-05-04 20:45:00,
2013-05-04 16:47:00,71.6,42.5,29.96,East,80,9.9,13.8,35,0.00,CLR,,0.00,WeatherDisplay:10.37,2013-05-04 20:47:00,
2013-05-04 16:48:00,71.6,43.9,29.96,NE,53,6.5,12.7,37,0.00,CLR,,0.00,WeatherDisplay:10.37,2013-05-04 20:48:00,
2013-05-04 16:49:00,71.5,43.8,29.96,NE,44,9.4,11.5,37,0.00,CLR,,0.00,WeatherDisplay:10.37,2013-05-04 20:49:00,
2013-05-04 16:50:00,71.6,43.2,29.96,NE,50,8.8,15.0,36,0.00,CLR,,0.00,WeatherDisplay:10.37,2013-05-04 20:50:00,
2013-05-04 16:52:00,71.5,43.1,29.96,NE,53,9.0,13.8,36,0.00,CLR,,0.00,WeatherDisplay:10.37,2013-05-04 20:52:00,
2013-05-04 16:53:00,71.5,43.1,29.95,ENE,74,11.2,15.0,36,0.00,CLR,,0.00,WeatherDisplay:10.37,2013-05-04 20:53:00,
2013-05-04 16:54:00,71.5,43.1,29.96,ENE,65,11.8,18.4,36,0.00,CLR,,0.00,WeatherDisplay:10.37,2013-05-04 20:54:00,
2013-05-04 16:55:00,71.5,43.1,29.96,East,88,12.1,16.1,36,0.00,CLR,,0.00,WeatherDisplay:10.37,2013-05-04 20:55:00,
2013-05-04 16:57:00,71.6,43.9,29.96,East,99,8.0,16.0,37,0.00,CLR,,0.00,WeatherDisplay:10.37,2013-05-04 20:57:00,
2013-05-04 16:58:00,71.7,43.3,29.96,ESE,103,12.1,16.1,36,0.00,CLR,,0.00,WeatherDisplay:10.37,2013-05-04 20:58:00,
2013-05-04 16:59:00,71.7,43.3,29.96,East,82,5.5,15.0,36,0.00,CLR,,0.00,WeatherDisplay:10.37,2013-05-04 20:59:00,
2013-05-04 17:00:00,71.7,43.3,29.96,ENE,63,5.9,8.1,36,0.00,CLR,,0.00,WeatherDisplay:10.37,2013-05-04 21:00:00,
2013-05-04 17:02:00,71.8,42.7,29.96,East,88,6.8,9.0,35,0.00,CLR,,0.00,WeatherDisplay:10.37,2013-05-04 21:02:00,
2013-05-04 17:03:00,71.9,43.5,29.96,East,96,10.3,14.0,36,0.00,CLR,,0.00,WeatherDisplay:10.37,2013-05-04 21:03:00,
2013-05-04 17:04:00,71.9,42.0,29.96,NNE,26,13.7,17.3,34,0.00,CLR,,0.00,WeatherDisplay:10.37,2013-05-04 21:04:00,
2013-05-04 17:05:00,71.9,42.0,29.96,NE,44,8.9,19.6,34,0.00,CLR,,0.00,WeatherDisplay:10.37,2013-05-04 21:05:00,
2013-05-04 17:07:00,71.9,42.0,29.96,ENE,70,4.6,11.5,34,0.00,CLR,,0.00,WeatherDisplay:10.37,2013-05-04 21:07:00,
2013-05-04 17:08:00,72.0,42.1,29.96,East,88,7.5,17.0,34,0.00,CLR,,0.00,WeatherDisplay:10.37,2013-05-04 21:08:00,
2013-05-04 17:10:00,72.0,42.1,29.96,NE,40,9.4,12.7,34,0.00,CLR,,0.00,WeatherDisplay:10.37,2013-05-04 21:10:00,
2013-05-04 17:12:00,72.0,40.5,29.96,NE,53,10.1,12.7,32,0.00,CLR,,0.00,WeatherDisplay:10.37,2013-05-04 21:12:00,
2013-05-04 17:13:00,72.0,40.5,29.96,ENE,67,8.2,17.3,32,0.00,CLR,,0.00,WeatherDisplay:10.37,2013-05-04 21:13:00,
2013-05-04 17:14:00,72.0,41.3,29.96,ENE,65,7.4,11.5,33,0.00,CLR,,0.00,WeatherDisplay:10.37,2013-05-04 21:14:00,
2013-05-04 17:15:00,72.1,41.4,29.96,ENE,64,7.9,11.5,33,0.00,CLR,,0.00,WeatherDisplay:10.37,2013-05-04 21:15:00,
2013-05-04 17:16:00,72.1,41.4,29.96,ENE,58,8.5,12.7,33,0.00,CLR,,0.00,WeatherDisplay:10.37,2013-05-04 21:16:00,
2013-05-04 17:17:00,72.2,42.3,29.96,NE,45,10.5,11.5,34,0.00,CLR,,0.00,WeatherDisplay:10.37,2013-05-04 21:17:00,
2013-05-04 17:18:00,72.2,40.7,29.96,NNE,33,9.1,15.0,32,0.00,CLR,,0.00,WeatherDisplay:10.37,2013-05-04 21:18:00,
2013-05-04 17:19:00,72.2,41.5,29.96,East,88,7.0,15.0,33,0.00,CLR,,0.00,WeatherDisplay:10.37,2013-05-04 21:19:00,
2013-05-04 17:20:00,72.2,41.5,29.96,East,87,6.6,11.5,33,0.00,CLR,,0.00,WeatherDisplay:10.37,2013-05-04 21:20:00,
2013-05-04 17:21:00,72.3,43.1,29.96,ENE,66,3.9,5.8,35,0.00,CLR,,0.00,WeatherDisplay:10.37,2013-05-04 21:21:00,
2013-05-04 17:23:00,72.5,41.0,29.96,East,84,5.1,9.2,32,0.00,CLR,,0.00,WeatherDisplay:10.37,2013-05-04 21:23:00,
2013-05-04 17:24:00,72.5,41.0,29.96,East,82,6.3,11.5,32,0.00,CLR,,0.00,WeatherDisplay:10.37,2013-05-04 21:24:00,
2013-05-04 17:25:00,72.4,40.9,29.96,ESE,107,11.8,15.0,32,0.00,CLR,,0.00,WeatherDisplay:10.37,2013-05-04 21:25:00,
2013-05-04 17:27:00,72.2,40.7,29.96,ENE,64,6.3,9.2,32,0.00,CLR,,0.00,WeatherDisplay:10.37,2013-05-04 21:27:00,
2013-05-04 17:28:00,72.1,42.2,29.96,East,91,6.9,11.5,34,0.00,CLR,,0.00,WeatherDisplay:10.37,2013-05-04 21:28:00,
2013-05-04 17:29:00,72.1,41.4,29.96,East,88,7.3,12.7,33,0.00,CLR,,0.00,WeatherDisplay:10.37,2013-05-04 21:29:00,
2013-05-04 17:30:00,72.1,41.4,29.96,East,81,7.0,12.7,33,0.00,CLR,,0.00,WeatherDisplay:10.37,2013-05-04 21:30:00,
2013-05-04 17:33:00,72.0,42.1,29.96,East,90,7.4,11.5,34,0.00,CLR,,0.00,WeatherDisplay:10.37,2013-05-04 21:33:00,
2013-05-04 17:34:00,72.1,41.4,29.96,NNE,29,5.1,8.1,33,0.00,CLR,,0.00,WeatherDisplay:10.37,2013-05-04 21:34:00,
2013-05-04 17:35:00,72.1,40.6,29.96,East,90,6.4,12.7,32,0.00,CLR,,0.00,WeatherDisplay:10.37,2013-05-04 21:35:00,
2013-05-04 17:38:00,72.2,43.0,29.96,NE,49,5.8,8.1,35,0.00,CLR,,0.00,WeatherDisplay:10.37,2013-05-04 21:38:00,
2013-05-04 17:39:00,72.3,40.8,29.96,East,90,5.5,9.2,32,0.00,CLR,,0.00,WeatherDisplay:10.37,2013-05-04 21:39:00,
2013-05-04 17:40:00,72.4,41.7,29.96,ESE,111,7.7,11.0,33,0.00,CLR,,0.00,WeatherDisplay:10.37,2013-05-04 21:40:00,
2013-05-04 17:43:00,72.5,41.0,29.96,ENE,71,8.7,11.5,32,0.00,CLR,,0.00,WeatherDisplay:10.37,2013-05-04 21:43:00,
2013-05-04 17:44:00,72.4,40.9,29.96,East,88,7.5,11.5,32,0.00,CLR,,0.00,WeatherDisplay:10.37,2013-05-04 21:44:00,
2013-05-04 17:45:00,72.5,41.7,29.96,NE,56,7.5,10.4,33,0.00,CLR,,0.00,WeatherDisplay:10.37,2013-05-04 21:45:00,
2013-05-04 17:48:00,72.6,40.2,29.96,NE,44,10.0,11.5,31,0.00,CLR,,0.00,WeatherDisplay:10.37,2013-05-04 21:48:00,
2013-05-04 17:49:00,72.6,41.0,29.96,ENE,74,7.3,13.8,32,0.00,CLR,,0.00,WeatherDisplay:10.37,2013-05-04 21:49:00,
2013-05-04 17:50:00,72.6,41.8,29.96,NE,55,6.0,11.0,33,0.00,CLR,,0.00,WeatherDisplay:10.37,2013-05-04 21:50:00,
2013-05-04 17:54:00,72.6,40.2,29.96,NE,55,11.6,15.0,31,0.00,CLR,,0.00,WeatherDisplay:10.37,2013-05-04 21:54:00,
2013-05-04 17:55:00,72.4,40.0,29.96,ENE,74,10.9,15.0,31,0.00,CLR,,0.00,WeatherDisplay:10.37,2013-05-04 21:55:00,
2013-05-04 17:59:00,72.3,40.8,29.96,ENE,57,10.2,13.8,32,0.00,CLR,,0.00,WeatherDisplay:10.37,2013-05-04 21:59:00,
2013-05-04 18:00:00,72.3,40.8,29.96,NE,54,9.8,12.7,32,0.00,CLR,,0.00,WeatherDisplay:10.37,2013-05-04 22:00:00,
2013-05-04 18:01:00,72.3,40.8,29.96,ENE,60,9.7,14.0,32,0.00,CLR,,0.00,WeatherDisplay:10.37,2013-05-04 22:01:00,
2013-05-04 18:04:00,72.1,39.8,29.96,East,83,13.0,19.6,31,0.00,CLR,,0.00,WeatherDisplay:10.37,2013-05-04 22:04:00,
2013-05-04 18:05:00,72.0,40.5,29.96,NE,44,6.4,11.0,32,0.00,CLR,,0.00,WeatherDisplay:10.37,2013-05-04 22:05:00,
2013-05-04 18:06:00,71.9,40.4,29.96,NE,41,7.9,11.5,32,0.00,CLR,,0.00,WeatherDisplay:10.37,2013-05-04 22:06:00,
2013-05-04 18:09:00,71.9,40.4,29.96,ENE,65,8.9,12.7,32,0.00,CLR,,0.00,WeatherDisplay:10.37,2013-05-04 22:09:00,
2013-05-04 18:10:00,71.8,40.3,29.96,East,99,9.2,15.0,32,0.00,CLR,,0.00,WeatherDisplay:10.37,2013-05-04 22:10:00,
2013-05-04 18:11:00,71.9,41.2,29.96,NE,46,6.3,11.5,33,0.00,CLR,,0.00,WeatherDisplay:10.37,2013-05-04 22:11:00,
2013-05-04 18:14:00,71.8,39.5,29.96,North,5,8.7,11.5,31,0.00,CLR,,0.00,WeatherDisplay:10.37,2013-05-04 22:14:00,
2013-05-04 18:15:00,71.8,40.3,29.96,ENE,62,8.7,13.0,32,0.00,CLR,,0.00,WeatherDisplay:10.37,2013-05-04 22:15:00,
2013-05-04 18:16:00,71.7,41.0,29.96,NE,55,6.7,13.8,33,0.00,CLR,,0.00,WeatherDisplay:10.37,2013-05-04 22:16:00,
2013-05-04 18:19:00,71.8,41.1,29.96,East,81,9.4,16.1,33,0.00,CLR,,0.00,WeatherDisplay:10.37,2013-05-04 22:19:00,
2013-05-04 18:20:00,71.8,40.3,29.96,ENE,71,7.1,12.7,32,0.00,CLR,,0.00,WeatherDisplay:10.37,2013-05-04 22:20:00,
2013-05-04 18:21:00,71.7,40.3,29.96,NE,50,6.1,9.2,32,0.00,CLR,,0.00,WeatherDisplay:10.37,2013-05-04 22:21:00,
2013-05-04 18:25:00,71.6,40.2,29.97,ENE,69,8.7,11.5,32,0.00,CLR,,0.00,WeatherDisplay:10.37,2013-05-04 22:25:00,
2013-05-04 18:26:00,71.5,40.1,29.96,ENE,62,8.9,12.7,32,0.00,CLR,,0.00,WeatherDisplay:10.37,2013-05-04 22:26:00,
2013-05-04 18:27:00,71.5,40.1,29.96,NE,49,9.2,16.1,32,0.00,CLR,,0.00,WeatherDisplay:10.37,2013-05-04 22:27:00,
2013-05-04 18:30:00,71.4,40.0,29.97,NE,36,11.1,15.0,32,0.00,CLR,,0.00,WeatherDisplay:10.37,2013-05-04 22:30:00,
2013-05-04 18:31:00,71.4,40.0,29.97,NE,56,11.4,15.0,32,0.00,CLR,,0.00,WeatherDisplay:10.37,2013-05-04 22:31:00,
2013-05-04 18:32:00,71.4,40.8,29.97,NE,53,7.7,13.8,33,0.00,CLR,,0.00,WeatherDisplay:10.37,2013-05-04 22:32:00,
2013-05-04 18:36:00,71.3,40.7,29.97,ENE,62,7.9,13.8,33,0.00,CLR,,0.00,WeatherDisplay:10.37,2013-05-04 22:36:00,
2013-05-04 18:37:00,71.4,40.8,29.97,East,81,5.8,11.0,33,0.00,CLR,,0.00,WeatherDisplay:10.37,2013-05-04 22:37:00,
2013-05-04 18:41:00,71.2,40.6,29.97,ENE,65,5.6,9.2,33,0.00,CLR,,0.00,WeatherDisplay:10.37,2013-05-04 22:41:00,
2013-05-04 18:42:00,71.1,40.5,29.97,ENE,68,5.4,6.9,33,0.00,CLR,,0.00,WeatherDisplay:10.37,2013-05-04 22:42:00,
2013-05-04 18:46:00,70.9,41.9,29.97,ENE,57,2.0,3.5,35,0.00,CLR,,0.00,WeatherDisplay:10.37,2013-05-04 22:46:00,
2013-05-04 18:47:00,70.9,41.9,29.97,NE,47,5.4,6.9,35,0.00,CLR,,0.00,WeatherDisplay:10.37,2013-05-04 22:47:00,
2013-05-04 18:48:00,70.8,41.8,29.97,NNE,32,5.5,9.2,35,0.00,CLR,,0.00,WeatherDisplay:10.37,2013-05-04 22:48:00,
2013-05-04 18:51:00,70.7,40.2,29.97,NE,44,5.3,8.1,33,0.00,CLR,,0.00,WeatherDisplay:10.37,2013-05-04 22:51:00,
2013-05-04 18:52:00,70.6,40.9,29.97,NNE,22,5.6,10.4,34,0.00,CLR,,0.00,WeatherDisplay:10.37,2013-05-04 22:52:00,
2013-05-04 18:53:00,70.6,41.6,29.97,NE,40,6.1,11.5,35,0.00,CLR,,0.00,WeatherDisplay:10.37,2013-05-04 22:53:00,
2013-05-04 18:56:00,70.4,41.4,29.97,ENE,78,3.3,8.1,35,0.00,CLR,,0.00,WeatherDisplay:10.37,2013-05-04 22:56:00,
2013-05-04 18:57:00,70.4,41.4,29.97,ENE,57,3.3,8.1,35,0.00,CLR,,0.00,WeatherDisplay:10.37,2013-05-04 22:57:00,
2013-05-04 18:58:00,70.3,40.6,29.97,ENE,71,4.4,7.0,34,0.00,CLR,,0.00,WeatherDisplay:10.37,2013-05-04 22:58:00,
2013-05-04 19:01:00,70.3,42.1,29.97,North,10,4.8,6.9,36,0.00,CLR,,0.00,WeatherDisplay:10.37,2013-05-04 23:01:00,
2013-05-04 19:02:00,70.3,42.1,29.97,NE,38,6.0,10.0,36,0.00,CLR,,0.00,WeatherDisplay:10.37,2013-05-04 23:02:00,
2013-05-04 19:03:00,70.3,41.3,29.97,ENE,74,5.8,11.5,35,0.00,CLR,,0.00,WeatherDisplay:10.37,2013-05-04 23:03:00,
2013-05-04 19:06:00,70.3,41.3,29.97,ESE,108,6.4,9.2,35,0.00,CLR,,0.00,WeatherDisplay:10.37,2013-05-04 23:06:00,
2013-05-04 19:07:00,70.3,41.3,29.97,NNE,32,6.4,11.5,35,0.00,CLR,,0.00,WeatherDisplay:10.37,2013-05-04 23:07:00,
2013-05-04 19:08:00,70.3,41.3,29.97,ENE,75,4.3,9.2,35,0.00,CLR,,0.00,WeatherDisplay:10.37,2013-05-04 23:08:00,
2013-05-04 19:09:00,70.3,41.3,29.97,NE,50,4.2,7.0,35,0.00,CLR,,0.00,WeatherDisplay:10.37,2013-05-04 23:09:00,
2013-05-04 19:11:00,70.3,41.3,29.97,NE,54,6.5,10.4,35,0.00,CLR,,0.00,WeatherDisplay:10.37,2013-05-04 23:11:00,
2013-05-04 19:12:00,70.3,41.3,29.97,ENE,78,4.8,10.4,35,0.00,CLR,,0.00,WeatherDisplay:10.37,2013-05-04 23:12:00,
2013-05-04 19:14:00,70.3,42.1,29.97,ENE,65,5.9,9.2,36,0.00,CLR,,0.00,WeatherDisplay:10.37,2013-05-04 23:14:00,
2013-05-04 19:16:00,70.2,40.5,29.97,East,96,6.3,9.2,34,0.00,CLR,,0.00,WeatherDisplay:10.37,2013-05-04 23:16:00,
2013-05-04 19:17:00,70.2,41.3,29.97,NE,44,5.9,10.4,35,0.00,CLR,,0.00,WeatherDisplay:10.37,2013-05-04 23:17:00,
2013-05-04 19:19:00,70.2,42.0,29.98,East,83,3.8,6.9,36,0.00,CLR,,0.00,WeatherDisplay:10.37,2013-05-04 23:19:00,
2013-05-04 19:21:00,70.1,41.9,29.98,ENE,76,5.0,6.9,36,0.00,CLR,,0.00,WeatherDisplay:10.37,2013-05-04 23:21:00,
2013-05-04 19:22:00,70.1,41.9,29.97,NNE,30,6.7,6.9,36,0.00,CLR,,0.00,WeatherDisplay:10.37,2013-05-04 23:22:00,
2013-05-04 19:24:00,70.1,41.2,29.97,East,88,5.5,9.2,35,0.00,CLR,,0.00,WeatherDisplay:10.37,2013-05-04 23:24:00,
2013-05-04 19:26:00,70.1,42.6,29.98,ENE,73,3.1,5.0,37,0.00,CLR,,0.00,WeatherDisplay:10.37,2013-05-04 23:26:00,
2013-05-04 19:27:00,70.1,41.9,29.98,NE,38,2.8,5.8,36,0.00,CLR,,0.00,WeatherDisplay:10.37,2013-05-04 23:27:00,
2013-05-04 19:29:00,70.1,42.6,29.98,SE,128,2.9,8.0,37,0.00,CLR,,0.00,WeatherDisplay:10.37,2013-05-04 23:29:00,
2013-05-04 19:32:00,70.0,41.8,29.98,ENE,61,5.4,8.1,36,0.00,CLR,,0.00,WeatherDisplay:10.37,2013-05-04 23:32:00,
2013-05-04 19:33:00,70.0,41.8,29.98,ENE,67,3.7,8.1,36,0.00,CLR,,0.00,WeatherDisplay:10.37,2013-05-04 23:33:00,
2013-05-04 19:34:00,70.0,41.8,29.98,East,90,3.3,7.0,36,0.00,CLR,,0.00,WeatherDisplay:10.37,2013-05-04 23:34:00,
2013-05-04 19:37:00,70.0,43.2,29.98,ENE,69,2.8,5.8,38,0.00,CLR,,0.00,WeatherDisplay:10.37,2013-05-04 23:37:00,
2013-05-04 19:38:00,70.0,42.5,29.98,NE,51,3.7,7.0,37,0.00,CLR,,0.00,WeatherDisplay:10.37,2013-05-04 23:38:00,
2013-05-04 19:39:00,69.9,42.4,29.98,ENE,60,5.5,9.2,37,0.00,CLR,,0.00,WeatherDisplay:10.37,2013-05-04 23:39:00,
2013-05-04 19:42:00,69.8,41.6,29.98,NE,43,5.8,8.1,36,0.00,CLR,,0.00,WeatherDisplay:10.37,2013-05-04 23:42:00,
2013-05-04 19:43:00,69.8,42.3,29.98,NE,43,5.2,9.2,37,0.00,CLR,,0.00,WeatherDisplay:10.37,2013-05-04 23:43:00,
2013-05-04 19:44:00,69.8,42.3,29.98,ENE,71,6.1,10.4,37,0.00,CLR,,0.00,WeatherDisplay:10.37,2013-05-04 23:44:00,
2013-05-04 19:45:00,69.8,42.3,29.98,NE,49,6.0,10.0,37,0.00,CLR,,0.00,WeatherDisplay:10.37,2013-05-04 23:45:00,
2013-05-04 19:47:00,69.7,42.3,29.98,ENE,57,6.6,10.4,37,0.00,CLR,,0.00,WeatherDisplay:10.37,2013-05-04 23:47:00,
2013-05-04 19:48:00,69.7,42.3,29.98,NE,45,4.4,8.1,37,0.00,CLR,,0.00,WeatherDisplay:10.37,2013-05-04 23:48:00,
2013-05-04 19:49:00,69.6,42.9,29.98,NE,36,3.7,6.0,38,0.00,CLR,,0.00,WeatherDisplay:10.37,2013-05-04 23:49:00,
2013-05-04 19:50:00,69.6,42.9,29.98,NE,36,3.7,6.0,38,0.00,CLR,,0.00,WeatherDisplay:10.37,2013-05-04 23:50:00,
2013-05-04 19:52:00,69.5,42.1,29.99,NE,55,5.7,9.2,37,0.00,CLR,,0.00,WeatherDisplay:10.37,2013-05-04 23:52:00,
2013-05-04 19:53:00,69.5,42.1,29.99,East,82,4.9,8.1,37,0.00,CLR,,0.00,WeatherDisplay:10.37,2013-05-04 23:53:00,
2013-05-04 19:54:00,69.4,42.7,29.99,NE,47,7.3,10.4,38,0.00,CLR,,0.00,WeatherDisplay:10.37,2013-05-04 23:54:00,
2013-05-04 19:55:00,69.4,42.0,29.99,NE,38,6.3,9.2,37,0.00,CLR,,0.00,WeatherDisplay:10.37,2013-05-04 23:55:00,
2013-05-04 19:57:00,69.3,41.9,29.99,NE,53,7.1,9.2,37,0.00,CLR,,0.00,WeatherDisplay:10.37,2013-05-04 23:57:00,
2013-05-04 19:58:00,69.2,41.8,29.99,NE,34,6.7,10.4,37,0.00,CLR,,0.00,WeatherDisplay:10.37,2013-05-04 23:58:00,
2013-05-04 19:59:00,69.2,42.5,29.99,ENE,69,5.1,10.4,38,0.00,CLR,,0.00,WeatherDisplay:10.37,2013-05-04 23:59:00,
2013-05-04 20:00:00,69.2,42.5,29.99,ENE,59,5.5,8.1,38,0.00,CLR,,0.00,WeatherDisplay:10.37,2013-05-05 00:00:00,
2013-05-04 20:03:00,69.0,41.6,29.99,NNE,31,7.8,9.2,37,0.00,CLR,,0.00,WeatherDisplay:10.37,2013-05-05 00:03:00,
2013-05-04 20:04:00,68.9,41.5,29.99,ENE,67,8.6,11.5,37,0.00,CLR,,0.00,WeatherDisplay:10.37,2013-05-05 00:04:00,
2013-05-04 20:05:00,68.9,42.2,29.99,NE,37,8.7,11.5,38,0.00,CLR,,0.00,WeatherDisplay:10.37,2013-05-05 00:05:00,
2013-05-04 20:08:00,68.8,42.1,29.99,NE,48,7.0,10.4,38,0.00,CLR,,0.00,WeatherDisplay:10.37,2013-05-05 00:08:00,
2013-05-04 20:09:00,68.7,42.7,29.99,NE,42,4.5,9.2,39,0.00,CLR,,0.00,WeatherDisplay:10.37,2013-05-05 00:09:00,
2013-05-04 20:10:00,68.6,42.6,29.99,NE,51,3.9,6.9,39,0.00,CLR,,0.00,WeatherDisplay:10.37,2013-05-05 00:10:00,
2013-05-04 20:13:00,68.5,41.9,29.99,NE,47,6.7,10.4,38,0.00,CLR,,0.00,WeatherDisplay:10.37,2013-05-05 00:13:00,
2013-05-04 20:15:00,68.4,42.5,29.99,NE,45,7.0,10.0,39,0.00,CLR,,0.00,WeatherDisplay:10.37,2013-05-05 00:15:00,
2013-05-04 20:18:00,68.3,42.4,29.99,NE,50,5.5,8.1,39,0.00,CLR,,0.00,WeatherDisplay:10.37,2013-05-05 00:18:00,
2013-05-04 20:20:00,68.2,42.9,29.99,East,88,3.0,6.9,40,0.00,CLR,,0.00,WeatherDisplay:10.37,2013-05-05 00:20:00,
2013-05-04 20:21:00,68.1,42.2,29.99,North,11,5.6,6.9,39,0.00,CLR,,0.00,WeatherDisplay:10.37,2013-05-05 00:21:00,
2013-05-04 20:24:00,68.0,42.8,29.99,NNE,28,4.4,9.2,40,0.00,CLR,,0.00,WeatherDisplay:10.37,2013-05-05 00:24:00,
2013-05-04 20:25:00,67.9,42.7,29.99,NE,37,5.2,8.1,40,0.00,CLR,,0.00,WeatherDisplay:10.37,2013-05-05 00:25:00,
2013-05-04 20:26:00,67.8,42.6,29.99,NNE,32,4.5,6.0,40,0.00,CLR,,0.00,WeatherDisplay:10.37,2013-05-05 00:26:00,
2013-05-04 20:29:00,67.6,43.7,29.99,NNE,26,4.1,6.0,42,0.00,CLR,,0.00,WeatherDisplay:10.37,2013-05-05 00:29:00,
2013-05-04 20:30:00,67.5,43.0,30.00,ENE,69,5.8,6.9,41,0.00,CLR,,0.00,WeatherDisplay:10.37,2013-05-05 00:30:00,
2013-05-04 20:31:00,67.5,43.0,30.00,NE,55,5.6,9.2,41,0.00,CLR,,0.00,WeatherDisplay:10.37,2013-05-05 00:31:00,
2013-05-04 20:34:00,67.2,42.7,30.00,NNE,26,5.7,9.2,41,0.00,CLR,,0.00,WeatherDisplay:10.37,2013-05-05 00:34:00,
2013-05-04 20:35:00,67.1,42.6,30.00,NE,39,5.2,8.1,41,0.00,CLR,,0.00,WeatherDisplay:10.37,2013-05-05 00:35:00,
2013-05-04 20:36:00,67.1,42.6,30.00,NNE,27,4.5,8.1,41,0.00,CLR,,0.00,WeatherDisplay:10.37,2013-05-05 00:36:00,
2013-05-04 20:39:00,66.8,43.0,30.00,ENE,58,3.5,5.8,42,0.00,CLR,,0.00,WeatherDisplay:10.37,2013-05-05 00:39:00,
2013-05-04 20:40:00,66.9,43.0,30.00,NE,37,3.0,8.0,42,0.00,CLR,,0.00,WeatherDisplay:10.37,2013-05-05 00:40:00,
2013-05-04 20:41:00,66.7,43.5,30.00,NNE,28,3.5,5.8,43,0.00,CLR,,0.00,WeatherDisplay:10.37,2013-05-05 00:41:00,
2013-05-04 20:44:00,66.4,43.8,30.00,NNE,26,3.2,4.0,44,0.00,CLR,,0.00,WeatherDisplay:10.37,2013-05-05 00:44:00,
2013-05-04 20:45:00,66.4,43.8,30.00,NE,36,3.3,4.0,44,0.00,CLR,,0.00,WeatherDisplay:10.37,2013-05-05 00:45:00,
2013-05-04 20:46:00,66.3,42.5,30.00,NE,45,4.3,4.6,42,0.00,CLR,,0.00,WeatherDisplay:10.37,2013-05-05 00:46:00,
2013-05-04 20:47:00,66.3,43.1,30.00,NE,38,3.4,8.1,43,0.00,CLR,,0.00,WeatherDisplay:10.37,2013-05-05 00:47:00,
2013-05-04 20:50:00,66.2,43.6,30.00,NNE,30,3.0,8.0,44,0.00,CLR,,0.00,WeatherDisplay:10.37,2013-05-05 00:50:00,
2013-05-04 20:51:00,66.1,42.9,30.00,NE,34,3.4,3.5,43,0.00,CLR,,0.00,WeatherDisplay:10.37,2013-05-05 00:51:00,
2013-05-04 20:52:00,66.0,42.9,30.00,ENE,59,5.1,6.9,43,0.00,CLR,,0.00,WeatherDisplay:10.37,2013-05-05 00:52:00,
2013-05-04 20:55:00,65.9,42.8,30.00,NNE,32,3.6,5.8,43,0.00,CLR,,0.00,WeatherDisplay:10.37,2013-05-05 00:55:00,
2013-05-04 20:56:00,65.8,43.9,30.00,NNE,33,1.8,3.5,45,0.00,CLR,,0.00,WeatherDisplay:10.37,2013-05-05 00:56:00,
2013-05-04 20:57:00,65.8,43.9,30.00,North,355,2.3,5.0,45,0.00,CLR,,0.00,WeatherDisplay:10.37,2013-05-05 00:57:00,
2013-05-04 20:58:00,65.7,43.8,30.00,NNE,23,2.7,4.6,45,0.00,CLR,,0.00,WeatherDisplay:10.37,2013-05-05 00:58:00,
2013-05-04 21:00:00,65.6,43.7,30.00,NNE,32,1.7,2.3,45,0.00,CLR,,0.00,WeatherDisplay:10.37,2013-05-05 01:00:00,
2013-05-04 21:01:00,65.4,43.5,30.00,NE,36,1.8,3.5,45,0.00,CLR,,0.00,WeatherDisplay:10.37,2013-05-05 01:01:00,
2013-05-04 21:02:00,65.4,42.9,30.00,NNE,27,1.7,3.5,44,0.00,CLR,,0.00,WeatherDisplay:10.37,2013-05-05 01:02:00,
2013-05-04 21:03:00,65.3,44.5,30.00,NNE,29,1.8,2.3,47,0.00,CLR,,0.00,WeatherDisplay:10.37,2013-05-05 01:03:00,
2013-05-04 21:05:00,65.2,43.3,30.00,NNE,21,2.2,3.5,45,0.00,CLR,,0.00,WeatherDisplay:10.37,2013-05-05 01:05:00,
2013-05-04 21:06:00,65.1,44.4,30.00,NNE,24,1.0,3.5,47,0.00,CLR,,0.00,WeatherDisplay:10.37,2013-05-05 01:06:00,
2013-05-04 21:07:00,65.1,43.8,30.00,NNE,23,1.4,2.3,46,0.00,CLR,,0.00,WeatherDisplay:10.37,2013-05-05 01:07:00,
2013-05-04 21:08:00,65.0,44.3,30.00,NNE,20,2.2,3.5,47,0.00,CLR,,0.00,WeatherDisplay:10.37,2013-05-05 01:08:00,
2013-05-04 21:11:00,64.9,44.2,30.00,NNE,23,1.8,3.5,47,0.00,CLR,,0.00,WeatherDisplay:10.37,2013-05-05 01:11:00,
2013-05-04 21:12:00,64.8,44.1,30.00,NNE,12,2.4,4.0,47,0.00,CLR,,0.00,WeatherDisplay:10.37,2013-05-05 01:12:00,
2013-05-04 21:13:00,64.7,43.4,30.00,NNE,25,2.7,4.0,46,0.00,CLR,,0.00,WeatherDisplay:10.37,2013-05-05 01:13:00,
2013-05-04 21:16:00,64.7,44.5,30.00,NNE,15,1.8,3.5,48,0.00,CLR,,0.00,WeatherDisplay:10.37,2013-05-05 01:16:00,
2013-05-04 21:17:00,64.6,45.0,30.00,North,9,2.1,4.0,49,0.00,CLR,,0.00,WeatherDisplay:10.37,2013-05-05 01:17:00,
2013-05-04 21:18:00,64.5,44.4,30.00,NNE,15,2.4,4.6,48,0.00,CLR,,0.00,WeatherDisplay:10.37,2013-05-05 01:18:00,
2013-05-04 21:21:00,64.4,44.3,30.00,North,5,1.3,3.5,48,0.00,CLR,,0.00,WeatherDisplay:10.37,2013-05-05 01:21:00,
2013-05-04 21:22:00,64.4,44.8,30.00,ENE,59,2.5,5.0,49,0.00,CLR,,0.00,WeatherDisplay:10.37,2013-05-05 01:22:00,
2013-05-04 21:23:00,64.4,44.8,30.00,NNE,15,2.1,4.6,49,0.00,CLR,,0.00,WeatherDisplay:10.37,2013-05-05 01:23:00,
2013-05-04 21:24:00,64.3,44.7,30.00,North,5,1.5,3.5,49,0.00,CLR,,0.00,WeatherDisplay:10.37,2013-05-05 01:24:00,
2013-05-04 21:26:00,64.2,44.6,30.00,NNE,19,1.7,3.5,49,0.00,CLR,,0.00,WeatherDisplay:10.37,2013-05-05 01:26:00,
2013-05-04 21:27:00,64.2,44.6,30.00,NE,36,1.7,3.5,49,0.00,CLR,,0.00,WeatherDisplay:10.37,2013-05-05 01:27:00,
2013-05-04 21:28:00,64.1,45.1,30.00,NNE,26,1.4,2.3,50,0.00,CLR,,0.00,WeatherDisplay:10.37,2013-05-05 01:28:00,
2013-05-04 21:30:00,64.1,45.1,30.00,NNE,19,1.0,3.0,50,0.00,CLR,,0.00,WeatherDisplay:10.37,2013-05-05 01:30:00,
2013-05-04 21:31:00,64.0,45.0,30.00,North,5,1.4,3.5,50,0.00,CLR,,0.00,WeatherDisplay:10.37,2013-05-05 01:31:00,
2013-05-04 21:32:00,64.0,45.0,30.00,NNE,23,2.2,3.5,50,0.00,CLR,,0.00,WeatherDisplay:10.37,2013-05-05 01:32:00,
2013-05-04 21:33:00,64.0,45.0,30.00,NE,36,1.9,3.5,50,0.00,CLR,,0.00,WeatherDisplay:10.37,2013-05-05 01:33:00,
2013-05-04 21:35:00,63.9,44.4,30.00,NNE,21,2.9,3.5,49,0.00,CLR,,0.00,WeatherDisplay:10.37,2013-05-05 01:35:00,
2013-05-04 21:37:00,64.0,44.4,30.00,NNE,31,3.4,5.8,49,0.00,CLR,,0.00,WeatherDisplay:10.37,2013-05-05 01:37:00,
2013-05-04 21:38:00,64.0,45.0,30.00,NNE,29,1.4,3.5,50,0.00,CLR,,0.00,WeatherDisplay:10.37,2013-05-05 01:38:00,
2013-05-04 21:40:00,64.0,44.4,30.00,NNE,22,3.0,4.6,49,0.00,CLR,,0.00,WeatherDisplay:10.37,2013-05-05 01:40:00,
2013-05-04 21:42:00,64.0,45.0,30.01,NNE,24,1.9,3.5,50,0.00,CLR,,0.00,WeatherDisplay:10.37,2013-05-05 01:42:00,
2013-05-04 21:43:00,64.0,45.0,30.00,NE,36,1.6,2.3,50,0.00,CLR,,0.00,WeatherDisplay:10.37,2013-05-05 01:43:00,
2013-05-04 21:44:00,64.0,45.5,30.01,NE,42,1.4,2.3,51,0.00,CLR,,0.00,WeatherDisplay:10.37,2013-05-05 01:44:00,
2013-05-04 21:45:00,63.9,45.4,30.01,NE,34,2.2,3.5,51,0.00,CLR,,0.00,WeatherDisplay:10.37,2013-05-05 01:45:00,
2013-05-04 21:47:00,63.9,45.4,30.01,North,10,3.6,4.6,51,0.00,CLR,,0.00,WeatherDisplay:10.37,2013-05-05 01:47:00,
2013-05-04 21:48:00,63.8,45.3,30.01,NE,42,3.8,4.6,51,0.00,CLR,,0.00,WeatherDisplay:10.37,2013-05-05 01:48:00,
2013-05-04 21:49:00,63.8,45.3,30.01,NE,36,4.3,8.1,51,0.00,CLR,,0.00,WeatherDisplay:10.37,2013-05-05 01:49:00,
2013-05-04 21:50:00,63.8,45.3,30.01,NNE,33,4.1,8.1,51,0.00,CLR,,0.00,WeatherDisplay:10.37,2013-05-05 01:50:00,
2013-05-04 21:52:00,63.8,45.8,30.01,North,11,2.1,3.5,52,0.00,CLR,,0.00,WeatherDisplay:10.37,2013-05-05 01:52:00,
2013-05-04 21:53:00,63.8,45.8,30.01,NNE,27,3.9,4.6,52,0.00,CLR,,0.00,WeatherDisplay:10.37,2013-05-05 01:53:00,
2013-05-04 21:54:00,63.8,45.8,30.01,NE,46,5.4,9.2,52,0.00,CLR,,0.00,WeatherDisplay:10.37,2013-05-05 01:54:00,
2013-05-04 21:55:00,63.9,45.4,30.01,North,5,4.2,9.2,51,0.00,CLR,,0.00,WeatherDisplay:10.37,2013-05-05 01:55:00,
2013-05-04 21:57:00,63.9,45.9,30.01,NNE,33,3.0,4.6,52,0.00,CLR,,0.00,WeatherDisplay:10.37,2013-05-05 01:57:00,
2013-05-04 21:58:00,64.0,46.0,30.01,NE,44,4.3,5.0,52,0.00,CLR,,0.00,WeatherDisplay:10.37,2013-05-05 01:58:00,
2013-05-04 21:59:00,64.0,45.5,30.01,NNE,15,4.3,5.8,51,0.00,CLR,,0.00,WeatherDisplay:10.37,2013-05-05 01:59:00,
2013-05-04 22:00:00,64.0,45.5,30.01,NNE,15,3.4,4.6,51,0.00,CLR,,0.00,WeatherDisplay:10.37,2013-05-05 02:00:00,
2013-05-04 22:02:00,64.0,46.0,30.01,NE,47,3.1,4.6,52,0.00,CLR,,0.00,WeatherDisplay:10.37,2013-05-05 02:02:00,
2013-05-04 22:03:00,64.0,46.0,30.01,NE,40,3.1,7.0,52,0.00,CLR,,0.00,WeatherDisplay:10.37,2013-05-05 02:03:00,
2013-05-04 22:04:00,64.0,45.5,30.01,NE,41,4.6,6.9,51,0.00,CLR,,0.00,WeatherDisplay:10.37,2013-05-05 02:04:00,
2013-05-04 22:06:00,64.0,45.5,30.01,NE,44,2.9,3.5,51,0.00,CLR,,0.00,WeatherDisplay:10.37,2013-05-05 02:06:00,
2013-05-04 22:07:00,64.1,46.1,30.01,East,81,1.9,3.5,52,0.00,CLR,,0.00,WeatherDisplay:10.37,2013-05-05 02:07:00,
2013-05-04 22:08:00,64.0,46.5,30.01,ENE,62,1.0,3.5,53,0.00,CLR,,0.00,WeatherDisplay:10.37,2013-05-05 02:08:00,
2013-05-04 22:09:00,64.0,46.0,30.01,ENE,62,0.9,2.3,52,0.00,CLR,,0.00,WeatherDisplay:10.37,2013-05-05 02:09:00,
2013-05-04 22:10:00,64.0,46.0,30.01,NE,53,1.0,4.0,52,0.00,CLR,,0.00,WeatherDisplay:10.37,2013-05-05 02:10:00,
2013-05-04 22:11:00,64.0,46.5,30.01,ENE,65,0.6,3.0,53,0.00,CLR,,0.00,WeatherDisplay:10.37,2013-05-05 02:11:00,
2013-05-04 22:12:00,63.9,45.9,30.01,NE,36,3.2,4.6,52,0.00,CLR,,0.00,WeatherDisplay:10.37,2013-05-05 02:12:00,
2013-05-04 22:14:00,63.9,45.9,30.01,NE,46,3.7,6.0,52,0.00,CLR,,0.00,WeatherDisplay:10.37,2013-05-05 02:14:00,
2013-05-04 22:15:00,63.8,46.3,30.01,NE,52,3.9,7.0,53,0.00,CLR,,0.00,WeatherDisplay:10.37,2013-05-05 02:15:00,
2013-05-04 22:16:00,63.8,46.8,30.01,NNE,20,3.2,6.9,54,0.00,CLR,,0.00,WeatherDisplay:10.37,2013-05-05 02:16:00,
2013-05-04 22:17:00,63.8,46.3,30.01,NE,55,4.4,5.8,53,0.00,CLR,,0.00,WeatherDisplay:10.37,2013-05-05 02:17:00,
2013-05-04 22:19:00,63.7,46.7,30.01,NNE,30,2.8,4.6,54,0.00,CLR,,0.00,WeatherDisplay:10.37,2013-05-05 02:19:00,
2013-05-04 22:20:00,63.7,46.7,30.01,NNE,31,2.4,3.5,54,0.00,CLR,,0.00,WeatherDisplay:10.37,2013-05-05 02:20:00,
2013-05-04 22:21:00,63.7,46.7,30.01,NE,40,2.7,3.5,54,0.00,CLR,,0.00,WeatherDisplay:10.37,2013-05-05 02:21:00,
2013-05-04 22:23:00,63.6,46.6,30.01,NNE,27,1.7,3.5,54,0.00,CLR,,0.00,WeatherDisplay:10.37,2013-05-05 02:23:00,
2013-05-04 22:24:00,63.6,46.6,30.01,NE,47,4.2,5.8,54,0.00,CLR,,0.00,WeatherDisplay:10.37,2013-05-05 02:24:00,
2013-05-04 22:25:00,63.6,46.6,30.01,NE,36,2.9,4.6,54,0.00,CLR,,0.00,WeatherDisplay:10.37,2013-05-05 02:25:00,
2013-05-04 22:27:00,63.6,46.6,30.01,NNE,28,3.4,4.6,54,0.00,CLR,,0.00,WeatherDisplay:10.37,2013-05-05 02:27:00,
2013-05-04 22:28:00,63.6,46.6,30.01,ENE,57,3.2,4.6,54,0.00,CLR,,0.00,WeatherDisplay:10.37,2013-05-05 02:28:00,
2013-05-04 22:29:00,63.6,46.6,30.01,NNE,22,2.5,4.0,54,0.00,CLR,,0.00,WeatherDisplay:10.37,2013-05-05 02:29:00,
2013-05-04 22:30:00,63.6,46.6,30.01,NE,44,3.3,5.8,54,0.00,CLR,,0.00,WeatherDisplay:10.37,2013-05-05 02:30:00,
2013-05-04 22:31:00,63.6,47.1,30.01,NE,41,2.9,6.0,55,0.00,CLR,,0.00,WeatherDisplay:10.37,2013-05-05 02:31:00,
2013-05-04 22:32:00,63.6,47.1,30.02,ENE,61,4.1,5.8,55,0.00,CLR,,0.00,WeatherDisplay:10.37,2013-05-05 02:32:00,
2013-05-04 22:33:00,63.6,46.6,30.02,NE,44,4.6,6.0,54,0.00,CLR,,0.00,WeatherDisplay:10.37,2013-05-05 02:33:00,
2013-05-04 22:34:00,63.6,46.6,30.02,NNE,14,4.3,6.9,54,0.00,CLR,,0.00,WeatherDisplay:10.37,2013-05-05 02:34:00,
2013-05-04 22:35:00,63.6,46.6,30.02,NE,46,3.4,5.8,54,0.00,CLR,,0.00,WeatherDisplay:10.37,2013-05-05 02:35:00,
2013-05-04 22:36:00,63.6,47.1,30.02,NE,47,3.1,4.6,55,0.00,CLR,,0.00,WeatherDisplay:10.37,2013-05-05 02:36:00,
2013-05-04 22:37:00,63.6,47.1,30.02,NE,50,3.5,5.0,55,0.00,CLR,,0.00,WeatherDisplay:10.37,2013-05-05 02:37:00,
2013-05-04 22:38:00,63.6,47.1,30.02,NE,46,3.1,5.8,55,0.00,CLR,,0.00,WeatherDisplay:10.37,2013-05-05 02:38:00,
2013-05-04 22:39:00,63.6,46.6,30.02,NE,56,4.9,6.9,54,0.00,CLR,,0.00,WeatherDisplay:10.37,2013-05-05 02:39:00,
2013-05-04 22:40:00,63.6,47.1,30.02,NE,46,4.0,5.8,55,0.00,CLR,,0.00,WeatherDisplay:10.37,2013-05-05 02:40:00,
2013-05-04 22:42:00,63.6,47.1,30.02,NE,36,3.8,5.8,55,0.00,CLR,,0.00,WeatherDisplay:10.37,2013-05-05 02:42:00,
2013-05-04 22:43:00,63.6,47.1,30.01,ENE,63,5.5,9.0,55,0.00,CLR,,0.00,WeatherDisplay:10.37,2013-05-05 02:43:00,
2013-05-04 22:44:00,63.6,47.1,30.01,NE,49,3.6,9.2,55,0.00,CLR,,0.00,WeatherDisplay:10.37,2013-05-05 02:44:00,
2013-05-04 22:45:00,63.6,47.1,30.02,ENE,63,4.2,5.0,55,0.00,CLR,,0.00,WeatherDisplay:10.37,2013-05-05 02:45:00,
2013-05-04 22:47:00,63.6,47.1,30.01,NE,49,3.5,6.9,55,0.00,CLR,,0.00,WeatherDisplay:10.37,2013-05-05 02:47:00,
2013-05-04 22:49:00,63.6,47.1,30.02,NE,51,4.5,5.8,55,0.00,CLR,,0.00,WeatherDisplay:10.37,2013-05-05 02:49:00,
2013-05-04 22:50:00,63.6,47.1,30.02,NE,53,3.9,5.8,55,0.00,CLR,,0.00,WeatherDisplay:10.37,2013-05-05 02:50:00,
2013-05-04 22:52:00,63.5,47.0,30.02,NE,44,4.0,5.8,55,0.00,CLR,,0.00,WeatherDisplay:10.37,2013-05-05 02:52:00,
2013-05-04 22:53:00,63.5,47.5,30.02,NE,46,2.5,4.6,56,0.00,CLR,,0.00,WeatherDisplay:10.37,2013-05-05 02:53:00,
2013-05-04 22:54:00,63.4,47.4,30.02,East,86,4.9,8.1,56,0.00,CLR,,0.00,WeatherDisplay:10.37,2013-05-05 02:54:00,
2013-05-04 22:55:00,63.4,47.4,30.01,NNE,26,3.4,5.8,56,0.00,CLR,,0.00,WeatherDisplay:10.37,2013-05-05 02:55:00,
2013-05-04 22:57:00,63.3,47.3,30.02,NE,35,3.6,4.6,56,0.00,CLR,,0.00,WeatherDisplay:10.37,2013-05-05 02:57:00,
2013-05-04 22:58:00,63.3,47.3,30.02,NE,40,4.2,5.8,56,0.00,CLR,,0.00,WeatherDisplay:10.37,2013-05-05 02:58:00,
2013-05-04 22:59:00,63.2,47.2,30.02,ENE,57,4.0,6.9,56,0.00,CLR,,0.00,WeatherDisplay:10.37,2013-05-05 02:59:00,
2013-05-04 23:00:00,63.2,47.2,30.02,NE,49,3.5,4.6,56,0.00,CLR,,0.00,WeatherDisplay:10.37,2013-05-05 03:00:00,
2013-05-04 23:02:00,63.1,47.1,30.02,NE,46,3.2,4.6,56,0.00,CLR,,0.00,WeatherDisplay:10.37,2013-05-05 03:02:00,
2013-05-04 23:03:00,63.1,47.6,30.02,NE,47,3.5,4.6,57,0.00,CLR,,0.00,WeatherDisplay:10.37,2013-05-05 03:03:00,
2013-05-04 23:04:00,63.1,47.6,30.02,NE,51,3.4,4.6,57,0.00,CLR,,0.00,WeatherDisplay:10.37,2013-05-05 03:04:00,
2013-05-04 23:05:00,63.0,47.5,30.02,NE,36,2.8,3.5,57,0.00,CLR,,0.00,WeatherDisplay:10.37,2013-05-05 03:05:00,
2013-05-04 23:06:00,63.0,47.5,30.02,NE,40,2.6,3.5,57,0.00,CLR,,0.00,WeatherDisplay:10.37,2013-05-05 03:06:00,
2013-05-04 23:08:00,62.9,47.4,30.01,NE,44,2.5,4.6,57,0.00,CLR,,0.00,WeatherDisplay:10.37,2013-05-05 03:08:00,
2013-05-04 23:09:00,62.9,47.4,30.02,NNE,32,2.7,4.6,57,0.00,CLR,,0.00,WeatherDisplay:10.37,2013-05-05 03:09:00,
2013-05-04 23:10:00,62.8,47.8,30.01,NE,41,2.5,4.6,58,0.00,CLR,,0.00,WeatherDisplay:10.37,2013-05-05 03:10:00,
2013-05-04 23:11:00,62.8,47.8,30.02,NE,50,2.6,4.6,58,0.00,CLR,,0.00,WeatherDisplay:10.37,2013-05-05 03:11:00,
2013-05-04 23:13:00,62.8,47.8,30.02,NNE,32,2.3,3.5,58,0.00,CLR,,0.00,WeatherDisplay:10.37,2013-05-05 03:13:00,
2013-05-04 23:14:00,62.7,47.2,30.01,NNE,30,2.5,3.5,57,0.00,CLR,,0.00,WeatherDisplay:10.37,2013-05-05 03:14:00,
2013-05-04 23:16:00,62.7,47.2,30.01,NE,51,2.7,4.6,57,0.00,CLR,,0.00,WeatherDisplay:10.37,2013-05-05 03:16:00,
2013-05-04 23:18:00,62.6,47.6,30.01,NE,39,2.5,5.0,58,0.00,CLR,,0.00,WeatherDisplay:10.37,2013-05-05 03:18:00,
2013-05-04 23:19:00,62.6,47.1,30.01,NNE,32,3.8,6.9,57,0.00,CLR,,0.00,WeatherDisplay:10.37,2013-05-05 03:19:00,
2013-05-04 23:21:00,62.6,47.6,30.01,NE,55,3.1,4.6,58,0.00,CLR,,0.00,WeatherDisplay:10.37,2013-05-05 03:21:00,
2013-05-04 23:23:00,62.6,47.1,30.01,ENE,78,2.8,4.6,57,0.00,CLR,,0.00,WeatherDisplay:10.37,2013-05-05 03:23:00,
2013-05-04 23:24:00,62.5,47.5,30.01,NE,49,2.7,4.6,58,0.00,CLR,,0.00,WeatherDisplay:10.37,2013-05-05 03:24:00,
2013-05-04 23:26:00,62.5,47.5,30.01,ENE,62,2.9,3.5,58,0.00,CLR,,0.00,WeatherDisplay:10.37,2013-05-05 03:26:00,
2013-05-04 23:28:00,62.4,47.4,30.01,NE,49,3.8,5.8,58,0.00,CLR,,0.00,WeatherDisplay:10.37,2013-05-05 03:28:00,
2013-05-04 23:29:00,62.4,47.4,30.01,NE,55,4.2,6.9,58,0.00,CLR,,0.00,WeatherDisplay:10.37,2013-05-05 03:29:00,
2013-05-04 23:31:00,62.4,47.4,30.01,ENE,62,3.8,3.8,58,0.00,CLR,,0.00,WeatherDisplay:10.37,2013-05-05 03:31:00,
2013-05-04 23:34:00,62.3,47.8,30.01,NE,51,2.2,3.0,59,0.00,CLR,,0.00,WeatherDisplay:10.37,2013-05-05 03:34:00,
2013-05-04 23:36:00,62.2,47.7,30.01,NE,55,1.9,3.5,59,0.00,CLR,,0.00,WeatherDisplay:10.37,2013-05-05 03:36:00,
2013-05-04 23:37:00,62.1,47.6,30.01,NE,49,1.0,3.5,59,0.00,CLR,,0.00,WeatherDisplay:10.37,2013-05-05 03:37:00,
2013-05-04 23:39:00,62.1,47.6,30.01,NE,49,1.1,2.3,59,0.00,CLR,,0.00,WeatherDisplay:10.37,2013-05-05 03:39:00,
2013-05-04 23:40:00,62.1,47.6,30.01,NE,51,2.0,4.0,59,0.00,CLR,,0.00,WeatherDisplay:10.37,2013-05-05 03:40:00,
2013-05-04 23:42:00,62.0,47.5,30.02,NE,56,3.2,3.5,59,0.00,CLR,,0.00,WeatherDisplay:10.37,2013-05-05 03:42:00,
2013-05-04 23:43:00,62.0,47.5,30.02,NE,47,2.0,3.5,59,0.00,CLR,,0.00,WeatherDisplay:10.37,2013-05-05 03:43:00,
2013-05-04 23:44:00,62.0,47.5,30.02,NE,51,2.1,3.5,59,0.00,CLR,,0.00,WeatherDisplay:10.37,2013-05-05 03:44:00,
2013-05-04 23:45:00,62.1,47.6,30.02,NE,41,1.9,3.5,59,0.00,CLR,,0.00,WeatherDisplay:10.37,2013-05-05 03:45:00,
2013-05-04 23:47:00,62.0,47.5,30.02,NE,51,1.2,2.3,59,0.00,CLR,,0.00,WeatherDisplay:10.37,2013-05-05 03:47:00,
2013-05-04 23:49:00,62.0,47.5,30.02,ENE,59,0.7,2.3,59,0.00,CLR,,0.00,WeatherDisplay:10.37,2013-05-05 03:49:00,
2013-05-04 23:50:00,62.0,47.5,30.02,NE,55,1.3,3.5,59,0.00,CLR,,0.00,WeatherDisplay:10.37,2013-05-05 03:50:00,
2013-05-04 23:52:00,62.0,47.5,30.02,NE,55,0.0,0.0,59,0.00,CLR,,0.00,WeatherDisplay:10.37,2013-05-05 03:52:00,
2013-05-04 23:54:00,61.9,47.4,30.02,SE,134,1.9,3.5,59,0.00,CLR,,0.00,WeatherDisplay:10.37,2013-05-05 03:54:00,
2013-05-04 23:55:00,61.8,47.8,30.02,South,169,1.9,3.5,60,0.00,CLR,,0.00,WeatherDisplay:10.37,2013-05-05 03:55:00,
2013-05-04 23:56:00,61.7,48.5,30.02,SSE,149,1.4,2.3,62,0.00,CLR,,0.00,WeatherDisplay:10.37,2013-05-05 03:56:00,
2013-05-04 23:57:00,61.7,48.5,30.02,SSE,160,2.1,3.5,62,0.00,CLR,,0.00,WeatherDisplay:10.37,2013-05-05 03:57:00,
2013-05-04 23:59:00,61.5,47.9,30.02,SSE,165,1.7,3.5,61,0.00,CLR,,0.00,WeatherDisplay:10.37,2013-05-05 03:59:00,